Wetterdaten: Dienstag, 15.08.2017
Datum Zeit Temp. Aussen Temp. o. S. +5cm Feuchte Auss BlattFeu 1 Luftdruck Regen Sonnenschein Regendauer Solar Windben Empfang
15.08.2017 00:00 18,8 C 17,2 C 15,6 C 87 % 1 lf 1015,1 hPa 0,0 l/m 0 min 0 min 0 W/m 2,1 km/h (1 Bft) 93,62 %
15.08.2017 00:02 18,7 C 17,2 C 15,0 C 87 % 1 lf 1015,2 hPa 0,0 l/m 0 min 0 min 0 W/m 2,1 km/h (1 Bft) 92,68 %
15.08.2017 00:04 18,7 C 16,7 C 15,0 C 87 % 1 lf 1015,1 hPa 0,0 l/m 0 min 0 min 0 W/m 0,0 km/h (0 Bft) 93,62 %
15.08.2017 00:07 18,6 C 16,7 C 15,0 C 87 % 1 lf 1015,1 hPa 0,0 l/m 0 min 0 min 0 W/m 2,1 km/h (1 Bft) 93,62 %
15.08.2017 00:08 18,6 C 16,7 C 15,0 C 88 % 1 lf 1015,1 hPa 0,0 l/m 0 min 0 min 0 W/m 2,1 km/h (1 Bft) 97,62 %
15.08.2017 00:10 18,6 C 16,7 C 15,0 C 88 % 1 lf 1015,1 hPa 0,0 l/m 0 min 0 min 0 W/m 2,1 km/h (1 Bft) 95,74 %
15.08.2017 00:12 18,6 C 16,7 C 15,0 C 88 % 1 lf 1015,1 hPa 0,0 l/m 0 min 0 min 0 W/m 2,1 km/h (1 Bft) 97,83 %
15.08.2017 00:14 18,5 C 16,7 C 15,0 C 88 % 2 lf 1015,1 hPa 0,0 l/m 0 min 0 min 0 W/m 2,1 km/h (1 Bft) 100,00 %
15.08.2017 00:16 18,4 C 16,7 C 15,0 C 88 % 2 lf 1015,1 hPa 0,0 l/m 0 min 0 min 0 W/m 2,1 km/h (1 Bft) 100,00 %
15.08.2017 00:18 18,4 C 16,7 C 15,0 C 88 % 2 lf 1015,2 hPa 0,0 l/m 0 min 0 min 0 W/m 4,2 km/h (1 Bft) 97,87 %
15.08.2017 00:20 18,4 C 16,7 C 15,0 C 88 % 2 lf 1015,1 hPa 0,0 l/m 0 min 0 min 0 W/m 4,2 km/h (1 Bft) 98,28 %
15.08.2017 00:22 18,4 C 16,7 C 15,0 C 88 % 2 lf 1015,1 hPa 0,0 l/m 0 min 0 min 0 W/m 4,2 km/h (1 Bft) 97,22 %
15.08.2017 00:24 18,3 C 16,7 C 15,0 C 88 % 2 lf 1015,1 hPa 0,0 l/m 0 min 0 min 0 W/m 6,3 km/h (2 Bft) 100,00 %
15.08.2017 00:26 18,3 C 16,7 C 15,0 C 88 % 2 lf 1015,1 hPa 0,0 l/m 0 min 0 min 0 W/m 6,3 km/h (2 Bft) 100,00 %
15.08.2017 00:28 18,3 C 16,7 C 15,0 C 88 % 2 lf 1015,1 hPa 0,0 l/m 0 min 0 min 0 W/m 4,2 km/h (1 Bft) 100,00 %
15.08.2017 00:30 18,3 C 17,2 C 15,0 C 89 % 1 lf 1015,1 hPa 0,0 l/m 0 min 0 min 0 W/m 4,2 km/h (1 Bft) 97,87 %
15.08.2017 00:32 18,3 C 17,2 C 15,0 C 89 % 1 lf 1015,1 hPa 0,0 l/m 0 min 0 min 0 W/m 4,2 km/h (1 Bft) 100,00 %
15.08.2017 00:34 18,2 C 17,2 C 15,0 C 89 % 1 lf 1015,1 hPa 0,0 l/m 0 min 0 min 0 W/m 4,2 km/h (1 Bft) 97,83 %
15.08.2017 00:36 18,2 C 17,2 C 15,0 C 90 % 1 lf 1015,0 hPa 0,0 l/m 0 min 0 min 0 W/m 6,3 km/h (2 Bft) 97,87 %
15.08.2017 00:38 18,2 C 17,2 C 15,0 C 90 % 1 lf 1014,9 hPa 0,0 l/m 0 min 0 min 0 W/m 6,3 km/h (2 Bft) 95,74 %
15.08.2017 00:40 18,2 C 17,2 C 15,0 C 90 % 1 lf 1015,0 hPa 0,0 l/m 0 min 0 min 0 W/m 4,2 km/h (1 Bft) 100,00 %
15.08.2017 00:42 18,2 C 17,2 C 15,0 C 90 % 1 lf 1014,9 hPa 0,0 l/m 0 min 0 min 0 W/m 4,2 km/h (1 Bft) 97,87 %
15.08.2017 00:44 18,2 C 17,2 C 15,0 C 90 % 1 lf 1014,9 hPa 0,0 l/m 0 min 0 min 0 W/m 2,1 km/h (1 Bft) 100,00 %
15.08.2017 00:46 18,2 C 17,2 C 15,0 C 90 % 1 lf 1014,9 hPa 0,0 l/m 0 min 0 min 0 W/m 4,2 km/h (1 Bft) 97,83 %
15.08.2017 00:48 18,2 C 17,2 C 15,0 C 90 % 1 lf 1014,9 hPa 0,0 l/m 0 min 0 min 0 W/m 4,2 km/h (1 Bft) 97,87 %
15.08.2017 00:50 18,1 C 16,7 C 15,0 C 90 % 1 lf 1015,0 hPa 0,0 l/m 0 min 0 min 0 W/m 4,2 km/h (1 Bft) 97,87 %
15.08.2017 00:52 18,1 C 16,7 C 15,0 C 90 % 1 lf 1014,9 hPa 0,0 l/m 0 min 0 min 0 W/m 4,2 km/h (1 Bft) 97,87 %
15.08.2017 00:54 18,1 C 17,2 C 15,0 C 90 % 1 lf 1014,9 hPa 0,0 l/m 0 min 0 min 0 W/m 6,3 km/h (2 Bft) 95,74 %
15.08.2017 00:56 18,1 C 16,7 C 15,0 C 91 % 1 lf 1014,9 hPa 0,0 l/m 0 min 0 min 0 W/m 6,3 km/h (2 Bft) 100,00 %
15.08.2017 00:58 18,1 C 16,7 C 15,0 C 91 % 1 lf 1014,9 hPa 0,0 l/m 0 min 0 min 0 W/m 4,2 km/h (1 Bft) 95,74 %
15.08.2017 01:00 18,1 C 17,2 C 15,0 C 91 % 1 lf 1015,0 hPa 0,0 l/m 0 min 0 min 0 W/m 6,3 km/h (2 Bft) 97,83 %
15.08.2017 01:02 18,1 C 17,2 C 15,0 C 91 % 1 lf 1014,9 hPa 0,0 l/m 0 min 0 min 0 W/m 2,1 km/h (1 Bft) 97,87 %
15.08.2017 01:04 18,1 C 17,2 C 15,0 C 91 % 1 lf 1015,0 hPa 0,0 l/m 0 min 0 min 0 W/m 4,2 km/h (1 Bft) 97,87 %
15.08.2017 01:06 18,0 C 17,2 C 15,0 C 91 % 1 lf 1015,0 hPa 0,0 l/m 0 min 0 min 0 W/m 6,3 km/h (2 Bft) 97,87 %
15.08.2017 01:08 18,0 C 17,2 C 15,0 C 91 % 1 lf 1015,1 hPa 0,0 l/m 0 min 0 min 0 W/m 4,2 km/h (1 Bft) 97,87 %
15.08.2017 01:10 18,0 C 17,2 C 15,0 C 92 % 1 lf 1015,1 hPa 0,0 l/m 0 min 0 min 0 W/m 6,3 km/h (2 Bft) 93,48 %
15.08.2017 01:12 18,0 C 17,2 C 15,0 C 92 % 2 lf 1014,9 hPa 0,0 l/m 0 min 0 min 0 W/m 4,2 km/h (1 Bft) 97,87 %
15.08.2017 01:14 18,0 C 17,2 C 15,0 C 92 % 2 lf 1014,9 hPa 0,0 l/m 0 min 0 min 0 W/m 6,3 km/h (2 Bft) 97,87 %
15.08.2017 01:16 18,0 C 17,2 C 15,0 C 92 % 2 lf 1014,9 hPa 0,0 l/m 0 min 0 min 0 W/m 6,3 km/h (2 Bft) 95,74 %
15.08.2017 01:18 17,9 C 17,2 C 15,0 C 92 % 2 lf 1014,8 hPa 0,0 l/m 0 min 0 min 0 W/m 6,3 km/h (2 Bft) 97,87 %
15.08.2017 01:20 17,9 C 17,2 C 15,0 C 92 % 2 lf 1014,8 hPa 0,0 l/m 0 min 0 min 0 W/m 6,3 km/h (2 Bft) 93,62 %
15.08.2017 01:22 17,9 C 17,2 C 15,0 C 92 % 2 lf 1014,8 hPa 0,0 l/m 0 min 0 min 0 W/m 4,2 km/h (1 Bft) 95,65 %
15.08.2017 01:24 17,9 C 17,2 C 15,0 C 92 % 2 lf 1014,9 hPa 0,0 l/m 0 min 0 min 0 W/m 6,3 km/h (2 Bft) 95,74 %
15.08.2017 01:26 17,9 C 17,2 C 15,0 C 92 % 2 lf 1014,9 hPa 0,0 l/m 0 min 0 min 0 W/m 4,2 km/h (1 Bft) 89,36 %
15.08.2017 01:28 17,9 C 17,2 C 15,0 C 92 % 2 lf 1014,8 hPa 0,0 l/m 0 min 0 min 4 W/m 4,2 km/h (1 Bft) 95,74 %
15.08.2017 01:30 17,9 C 17,2 C 15,0 C 92 % 2 lf 1014,8 hPa 0,0 l/m 0 min 0 min 5 W/m 6,3 km/h (2 Bft) 97,87 %
15.08.2017 01:32 17,9 C 17,2 C 15,0 C 92 % 2 lf 1014,7 hPa 0,0 l/m 0 min 0 min 0 W/m 4,2 km/h (1 Bft) 97,87 %
15.08.2017 01:34 17,9 C 17,2 C 15,0 C 92 % 2 lf 1014,7 hPa 0,0 l/m 0 min 0 min 0 W/m 2,1 km/h (1 Bft) 97,83 %
15.08.2017 01:36 17,9 C 17,2 C 15,0 C 92 % 2 lf 1014,8 hPa 0,0 l/m 0 min 0 min 5 W/m 0,0 km/h (0 Bft) 96,43 %
15.08.2017 01:38 17,8 C 17,2 C 15,0 C 93 % 2 lf 1014,8 hPa 0,0 l/m 0 min 0 min 5 W/m 4,2 km/h (1 Bft) 95,74 %
15.08.2017 01:40 17,8 C 17,2 C 15,0 C 93 % 2 lf 1014,8 hPa 0,0 l/m 0 min 0 min 5 W/m 6,3 km/h (2 Bft) 95,74 %
15.08.2017 01:42 17,8 C 17,2 C 15,0 C 93 % 2 lf 1014,7 hPa 0,0 l/m 0 min 0 min 5 W/m 4,2 km/h (1 Bft) 97,83 %
15.08.2017 01:44 17,8 C 17,2 C 15,0 C 93 % 1 lf 1014,8 hPa 0,0 l/m 0 min 0 min 5 W/m 4,2 km/h (1 Bft) 97,87 %
15.08.2017 01:46 17,8 C 17,2 C 15,0 C 93 % 2 lf 1014,8 hPa 0,0 l/m 0 min 0 min 5 W/m 4,2 km/h (1 Bft) 97,87 %
15.08.2017 01:48 17,8 C 17,2 C 15,0 C 93 % 2 lf 1014,7 hPa 0,0 l/m 0 min 0 min 5 W/m 4,2 km/h (1 Bft) 97,87 %
15.08.2017 01:50 17,8 C 17,2 C 15,0 C 93 % 2 lf 1014,8 hPa 0,0 l/m 0 min 0 min 5 W/m 4,2 km/h (1 Bft) 97,87 %
15.08.2017 01:52 17,8 C 17,2 C 15,0 C 93 % 2 lf 1014,9 hPa 0,0 l/m 0 min 0 min 5 W/m 2,1 km/h (1 Bft) 97,87 %
15.08.2017 01:54 17,8 C 16,7 C 15,0 C 93 % 2 lf 1014,8 hPa 0,0 l/m 0 min 0 min 5 W/m 4,2 km/h (1 Bft) 97,83 %
15.08.2017 01:56 17,8 C 17,2 C 15,0 C 93 % 2 lf 1014,8 hPa 0,0 l/m 0 min 0 min 5 W/m 4,2 km/h (1 Bft) 97,87 %
15.08.2017 01:58 17,8 C 17,2 C 15,0 C 93 % 2 lf 1014,8 hPa 0,0 l/m 0 min 0 min 5 W/m 6,3 km/h (2 Bft) 95,74 %
15.08.2017 02:00 17,8 C 17,2 C 15,0 C 93 % 2 lf 1014,7 hPa 0,0 l/m 0 min 0 min 5 W/m 4,2 km/h (1 Bft) 93,62 %
15.08.2017 02:02 17,7 C 17,2 C 15,0 C 93 % 2 lf 1014,8 hPa 0,0 l/m 0 min 0 min 5 W/m 6,3 km/h (2 Bft) 95,74 %
15.08.2017 02:04 17,7 C 17,2 C 15,0 C 93 % 2 lf 1014,7 hPa 0,0 l/m 0 min 0 min 1 W/m 6,3 km/h (2 Bft) 95,74 %
15.08.2017 02:06 17,7 C 17,2 C 15,0 C 94 % 2 lf 1014,7 hPa 0,0 l/m 0 min 0 min 0 W/m 6,3 km/h (2 Bft) 95,92 %
15.08.2017 02:08 17,7 C 17,2 C 15,0 C 93 % 2 lf 1014,7 hPa 0,0 l/m 0 min 0 min 2 W/m 8,4 km/h (2 Bft) 95,74 %
15.08.2017 02:10 17,7 C 17,2 C 15,0 C 93 % 1 lf 1014,7 hPa 0,0 l/m 0 min 0 min 0 W/m 8,4 km/h (2 Bft) 97,87 %
15.08.2017 02:12 17,7 C 17,2 C 15,6 C 94 % 1 lf 1014,7 hPa 0,0 l/m 0 min 0 min 2 W/m 8,4 km/h (2 Bft) 95,74 %
15.08.2017 02:14 17,7 C 17,2 C 15,6 C 94 % 1 lf 1014,7 hPa 0,0 l/m 0 min 0 min 0 W/m 6,3 km/h (2 Bft) 97,87 %
15.08.2017 02:16 17,7 C 17,2 C 15,0 C 94 % 1 lf 1014,7 hPa 0,0 l/m 0 min 0 min 0 W/m 6,3 km/h (2 Bft) 97,83 %
15.08.2017 02:18 17,7 C 17,2 C 15,0 C 94 % 1 lf 1014,6 hPa 0,0 l/m 0 min 0 min 2 W/m 6,3 km/h (2 Bft) 93,62 %
15.08.2017 02:20 17,7 C 17,2 C 15,0 C 94 % 1 lf 1014,6 hPa 0,0 l/m 0 min 0 min 2 W/m 6,3 km/h (2 Bft) 95,74 %
15.08.2017 02:22 17,7 C 17,2 C 15,0 C 94 % 1 lf 1014,6 hPa 0,0 l/m 0 min 0 min 0 W/m 4,2 km/h (1 Bft) 97,92 %
15.08.2017 02:24 17,7 C 17,2 C 15,0 C 94 % 1 lf 1014,6 hPa 0,0 l/m 0 min 0 min 0 W/m 6,3 km/h (2 Bft) 95,74 %
15.08.2017 02:26 17,7 C 17,2 C 15,0 C 94 % 1 lf 1014,5 hPa 0,0 l/m 0 min 0 min 0 W/m 6,3 km/h (2 Bft) 97,87 %
15.08.2017 02:28 17,7 C 17,2 C 15,0 C 94 % 1 lf 1014,5 hPa 0,0 l/m 0 min 0 min 0 W/m 6,3 km/h (2 Bft) 97,83 %
15.08.2017 02:30 17,6 C 17,2 C 15,0 C 94 % 1 lf 1014,5 hPa 0,0 l/m 0 min 0 min 0 W/m 6,3 km/h (2 Bft) 97,87 %
15.08.2017 02:32 17,6 C 17,2 C 15,0 C 94 % 1 lf 1014,6 hPa 0,0 l/m 0 min 0 min 0 W/m 6,3 km/h (2 Bft) 95,74 %
15.08.2017 02:34 17,6 C 17,2 C 15,0 C 94 % 1 lf 1014,6 hPa 0,0 l/m 0 min 0 min 2 W/m 6,3 km/h (2 Bft) 97,87 %
15.08.2017 02:36 17,6 C 16,7 C 15,0 C 94 % 1 lf 1014,6 hPa 0,0 l/m 0 min 0 min 0 W/m 6,3 km/h (2 Bft) 97,30 %
15.08.2017 02:38 17,6 C 17,2 C 15,0 C 94 % 1 lf 1014,6 hPa 0,0 l/m 0 min 0 min 0 W/m 4,2 km/h (1 Bft) 95,74 %
15.08.2017 02:40 17,6 C 16,7 C 15,0 C 94 % 1 lf 1014,6 hPa 0,0 l/m 0 min 0 min 0 W/m 6,3 km/h (2 Bft) 97,87 %
15.08.2017 02:42 17,6 C 16,7 C 15,0 C 94 % 2 lf 1014,6 hPa 0,0 l/m 0 min 0 min 0 W/m 4,2 km/h (1 Bft) 95,74 %
15.08.2017 02:44 17,6 C 16,7 C 15,0 C 94 % 2 lf 1014,6 hPa 0,0 l/m 0 min 0 min 0 W/m 4,2 km/h (1 Bft) 95,65 %
15.08.2017 02:46 17,6 C 16,7 C 15,0 C 94 % 2 lf 1014,6 hPa 0,0 l/m 0 min 0 min 0 W/m 4,2 km/h (1 Bft) 93,62 %
15.08.2017 02:48 17,6 C 16,7 C 15,0 C 94 % 2 lf 1014,6 hPa 0,0 l/m 0 min 0 min 0 W/m 6,3 km/h (2 Bft) 95,74 %
15.08.2017 02:50 17,6 C 16,7 C 15,0 C 94 % 2 lf 1014,6 hPa 0,0 l/m 0 min 0 min 0 W/m 6,3 km/h (2 Bft) 96,61 %
15.08.2017 02:52 17,6 C 16,7 C 15,0 C 94 % 2 lf 1014,5 hPa 0,0 l/m 0 min 0 min 0 W/m 8,4 km/h (2 Bft) 97,14 %
15.08.2017 02:54 17,5 C 16,7 C 15,0 C 94 % 2 lf 1014,5 hPa 0,0 l/m 0 min 0 min 0 W/m 4,2 km/h (1 Bft) 95,65 %
15.08.2017 02:56 17,5 C 16,7 C 15,0 C 94 % 2 lf 1014,5 hPa 0,0 l/m 0 min 0 min 0 W/m 4,2 km/h (1 Bft) 95,74 %
15.08.2017 02:58 17,5 C 16,7 C 15,0 C 94 % 2 lf 1014,5 hPa 0,0 l/m 0 min 0 min 0 W/m 4,2 km/h (1 Bft) 95,74 %
15.08.2017 03:00 17,5 C 16,7 C 15,0 C 94 % 2 lf 1014,5 hPa 0,0 l/m 0 min 0 min 0 W/m 4,2 km/h (1 Bft) 95,74 %
15.08.2017 03:02 17,4 C 16,7 C 15,0 C 94 % 2 lf 1014,5 hPa 0,0 l/m 0 min 0 min 0 W/m 6,3 km/h (2 Bft) 93,62 %
15.08.2017 03:04 17,4 C 16,7 C 15,0 C 94 % 2 lf 1014,5 hPa 0,0 l/m 0 min 0 min 0 W/m 4,2 km/h (1 Bft) 93,62 %
15.08.2017 03:06 17,4 C 16,7 C 15,0 C 94 % 2 lf 1014,5 hPa 0,0 l/m 0 min 0 min 0 W/m 4,2 km/h (1 Bft) 95,65 %
15.08.2017 03:08 17,4 C 16,7 C 15,0 C 94 % 2 lf 1014,4 hPa 0,0 l/m 0 min 0 min 0 W/m 6,3 km/h (2 Bft) 91,49 %
15.08.2017 03:10 17,4 C 16,7 C 14,4 C 94 % 2 lf 1014,5 hPa 0,0 l/m 0 min 0 min 2 W/m 6,3 km/h (2 Bft) 95,74 %
15.08.2017 03:12 17,4 C 16,7 C 14,4 C 94 % 2 lf 1014,4 hPa 0,0 l/m 0 min 0 min 2 W/m 4,2 km/h (1 Bft) 95,74 %
15.08.2017 03:14 17,4 C 16,7 C 14,4 C 94 % 2 lf 1014,5 hPa 0,0 l/m 0 min 0 min 0 W/m 6,3 km/h (2 Bft) 95,74 %
15.08.2017 03:16 17,3 C 16,1 C 14,4 C 94 % 2 lf 1014,5 hPa 0,0 l/m 0 min 0 min 1 W/m 6,3 km/h (2 Bft) 97,87 %
15.08.2017 03:18 17,3 C 16,1 C 14,4 C 94 % 2 lf 1014,4 hPa 0,0 l/m 0 min 0 min 1 W/m 4,2 km/h (1 Bft) 95,65 %
15.08.2017 03:20 17,3 C 16,1 C 14,4 C 94 % 2 lf 1014,4 hPa 0,0 l/m 0 min 0 min 0 W/m 6,3 km/h (2 Bft) 95,74 %
15.08.2017 03:22 17,3 C 16,1 C 14,4 C 94 % 2 lf 1014,5 hPa 0,0 l/m 0 min 0 min 0 W/m 6,3 km/h (2 Bft) 93,62 %
15.08.2017 03:24 17,3 C 16,7 C 14,4 C 94 % 3 lf 1014,5 hPa 0,0 l/m 0 min 0 min 0 W/m 6,3 km/h (2 Bft) 93,62 %
15.08.2017 03:26 17,2 C 16,7 C 14,4 C 94 % 2 lf 1014,5 hPa 0,0 l/m 0 min 0 min 0 W/m 4,2 km/h (1 Bft) 93,62 %
15.08.2017 03:28 17,2 C 16,7 C 14,4 C 94 % 3 lf 1014,5 hPa 0,0 l/m 0 min 0 min 0 W/m 6,3 km/h (2 Bft) 95,74 %
15.08.2017 03:30 17,2 C 16,7 C 14,4 C 94 % 3 lf 1014,5 hPa 0,0 l/m 0 min 0 min 0 W/m 6,3 km/h (2 Bft) 91,30 %
15.08.2017 03:32 17,2 C 16,1 C 14,4 C 94 % 3 lf 1014,4 hPa 0,0 l/m 0 min 0 min 5 W/m 4,2 km/h (1 Bft) 95,74 %
15.08.2017 03:34 17,2 C 16,1 C 14,4 C 94 % 3 lf 1014,4 hPa 0,0 l/m 0 min 0 min 0 W/m 4,2 km/h (1 Bft) 97,87 %
15.08.2017 03:36 17,1 C 16,1 C 14,4 C 94 % 3 lf 1014,4 hPa 0,0 l/m 0 min 0 min 0 W/m 4,2 km/h (1 Bft) 98,18 %
15.08.2017 03:38 17,1 C 16,1 C 14,4 C 94 % 3 lf 1014,4 hPa 0,0 l/m 0 min 0 min 0 W/m 6,3 km/h (2 Bft) 97,83 %
15.08.2017 03:40 17,1 C 16,1 C 14,4 C 94 % 3 lf 1014,4 hPa 0,0 l/m 0 min 0 min 0 W/m 6,3 km/h (2 Bft) 93,62 %
15.08.2017 03:42 17,1 C 16,1 C 14,4 C 95 % 3 lf 1014,3 hPa 0,0 l/m 0 min 0 min 0 W/m 4,2 km/h (1 Bft) 95,74 %
15.08.2017 03:44 17,1 C 16,1 C 14,4 C 95 % 3 lf 1014,4 hPa 0,0 l/m 0 min 0 min 0 W/m 6,3 km/h (2 Bft) 97,87 %
15.08.2017 03:46 17,0 C 16,1 C 14,4 C 94 % 3 lf 1014,4 hPa 0,0 l/m 0 min 0 min 0 W/m 6,3 km/h (2 Bft) 95,74 %
15.08.2017 03:48 17,0 C 16,1 C 14,4 C 94 % 3 lf 1014,4 hPa 0,0 l/m 0 min 0 min 0 W/m 4,2 km/h (1 Bft) 95,74 %
15.08.2017 03:50 16,9 C 16,1 C 14,4 C 94 % 3 lf 1014,4 hPa 0,0 l/m 0 min 0 min 0 W/m 6,3 km/h (2 Bft) 97,83 %
15.08.2017 03:52 16,9 C 16,1 C 13,9 C 94 % 3 lf 1014,4 hPa 0,0 l/m 0 min 0 min 0 W/m 6,3 km/h (2 Bft) 97,87 %
15.08.2017 03:54 16,9 C 16,1 C 13,9 C 94 % 3 lf 1014,4 hPa 0,0 l/m 0 min 0 min 0 W/m 6,3 km/h (2 Bft) 100,00 %
15.08.2017 03:56 16,9 C 16,1 C 13,9 C 94 % 3 lf 1014,3 hPa 0,0 l/m 0 min 0 min 0 W/m 6,3 km/h (2 Bft) 97,87 %
15.08.2017 03:58 16,9 C 16,1 C 13,9 C 94 % 3 lf 1014,3 hPa 0,0 l/m 0 min 0 min 0 W/m 6,3 km/h (2 Bft) 100,00 %
15.08.2017 04:00 16,9 C 16,1 C 13,9 C 94 % 3 lf 1014,3 hPa 0,0 l/m 0 min 0 min 0 W/m 6,3 km/h (2 Bft) 100,00 %
15.08.2017 04:05 16,8 C 16,1 C 13,9 C 94 % 3 lf 1014,2 hPa 0,0 l/m 0 min 0 min 0 W/m 4,2 km/h (1 Bft) 95,77 %
15.08.2017 04:06 16,8 C 16,1 C 13,9 C 95 % 3 lf 1014,2 hPa 0,0 l/m 0 min 0 min 0 W/m 4,2 km/h (1 Bft) 100,00 %
15.08.2017 04:08 16,8 C 16,1 C 13,9 C 95 % 3 lf 1014,3 hPa 0,0 l/m 0 min 0 min 0 W/m 4,2 km/h (1 Bft) 100,00 %
15.08.2017 04:10 16,8 C 16,1 C 13,9 C 95 % 3 lf 1014,3 hPa 0,0 l/m 0 min 0 min 0 W/m 4,2 km/h (1 Bft) 97,87 %
15.08.2017 04:12 16,7 C 16,1 C 13,9 C 95 % 4 lf 1014,3 hPa 0,0 l/m 0 min 0 min 0 W/m 4,2 km/h (1 Bft) 97,87 %
15.08.2017 04:14 16,7 C 15,6 C 13,9 C 95 % 4 lf 1014,2 hPa 0,0 l/m 0 min 0 min 0 W/m 4,2 km/h (1 Bft) 100,00 %
15.08.2017 04:16 16,7 C 15,6 C 13,9 C 95 % 4 lf 1014,3 hPa 0,0 l/m 0 min 0 min 0 W/m 4,2 km/h (1 Bft) 97,87 %
15.08.2017 04:18 16,7 C 15,6 C 13,9 C 94 % 4 lf 1014,2 hPa 0,0 l/m 0 min 0 min 0 W/m 6,3 km/h (2 Bft) 95,74 %
15.08.2017 04:20 16,6 C 15,6 C 13,9 C 94 % 4 lf 1014,2 hPa 0,0 l/m 0 min 0 min 0 W/m 6,3 km/h (2 Bft) 95,74 %
15.08.2017 04:22 16,6 C 15,6 C 13,9 C 94 % 4 lf 1014,2 hPa 0,0 l/m 0 min 0 min 0 W/m 6,3 km/h (2 Bft) 97,87 %
15.08.2017 04:24 16,6 C 15,6 C 13,9 C 94 % 4 lf 1014,2 hPa 0,0 l/m 0 min 0 min 0 W/m 4,2 km/h (1 Bft) 97,87 %
15.08.2017 04:26 16,6 C 15,6 C 13,9 C 94 % 4 lf 1014,1 hPa 0,0 l/m 0 min 0 min 0 W/m 4,2 km/h (1 Bft) 97,83 %
15.08.2017 04:28 16,5 C 15,6 C 13,9 C 94 % 4 lf 1014,2 hPa 0,0 l/m 0 min 0 min 1 W/m 4,2 km/h (1 Bft) 97,87 %
15.08.2017 04:30 16,5 C 15,6 C 13,9 C 94 % 4 lf 1014,1 hPa 0,0 l/m 0 min 0 min 0 W/m 4,2 km/h (1 Bft) 97,87 %
15.08.2017 04:32 16,5 C 15,6 C 13,9 C 94 % 4 lf 1014,1 hPa 0,0 l/m 0 min 0 min 0 W/m 4,2 km/h (1 Bft) 97,92 %
15.08.2017 04:34 16,4 C 15,6 C 13,9 C 95 % 4 lf 1014,1 hPa 0,0 l/m 0 min 0 min 0 W/m 6,3 km/h (2 Bft) 95,74 %
15.08.2017 04:36 16,4 C 15,6 C 13,9 C 95 % 5 lf 1014,1 hPa 0,0 l/m 0 min 0 min 0 W/m 6,3 km/h (2 Bft) 97,96 %
15.08.2017 04:38 16,4 C 15,6 C 13,9 C 95 % 5 lf 1014,1 hPa 0,0 l/m 0 min 0 min 0 W/m 6,3 km/h (2 Bft) 95,74 %
15.08.2017 04:40 16,4 C 15,6 C 13,9 C 95 % 5 lf 1014,1 hPa 0,0 l/m 0 min 0 min 0 W/m 6,3 km/h (2 Bft) 97,87 %
15.08.2017 04:42 16,4 C 15,6 C 13,9 C 95 % 5 lf 1014,1 hPa 0,0 l/m 0 min 0 min 0 W/m 6,3 km/h (2 Bft) 95,74 %
15.08.2017 04:44 16,3 C 15,6 C 13,9 C 95 % 6 lf 1014,2 hPa 0,0 l/m 0 min 0 min 0 W/m 6,3 km/h (2 Bft) 95,74 %
15.08.2017 04:46 16,3 C 15,6 C 13,9 C 95 % 6 lf 1014,2 hPa 0,0 l/m 0 min 0 min 0 W/m 6,3 km/h (2 Bft) 97,83 %
15.08.2017 04:48 16,3 C 15,6 C 13,9 C 95 % 6 lf 1014,2 hPa 0,0 l/m 0 min 0 min 0 W/m 6,3 km/h (2 Bft) 95,74 %
15.08.2017 04:50 16,3 C 15,6 C 13,9 C 95 % 7 lf 1014,2 hPa 0,0 l/m 0 min 0 min 0 W/m 6,3 km/h (2 Bft) 95,74 %
15.08.2017 04:52 16,3 C 15,6 C 13,9 C 95 % 7 lf 1014,2 hPa 0,0 l/m 0 min 0 min 0 W/m 4,2 km/h (1 Bft) 97,87 %
15.08.2017 04:54 16,2 C 15,0 C 13,9 C 95 % 8 lf 1014,3 hPa 0,0 l/m 0 min 0 min 0 W/m 6,3 km/h (2 Bft) 91,49 %
15.08.2017 04:56 16,2 C 15,0 C 13,3 C 95 % 8 lf 1014,2 hPa 0,0 l/m 0 min 0 min 0 W/m 4,2 km/h (1 Bft) 95,65 %
15.08.2017 04:58 16,2 C 15,0 C 13,3 C 95 % 9 lf 1014,3 hPa 0,0 l/m 0 min 0 min 0 W/m 4,2 km/h (1 Bft) 93,48 %
15.08.2017 05:00 16,2 C 15,0 C 13,3 C 95 % 9 lf 1014,3 hPa 0,0 l/m 0 min 0 min 0 W/m 4,2 km/h (1 Bft) 91,49 %
15.08.2017 05:02 16,2 C 15,0 C 13,3 C 95 % 9 lf 1014,3 hPa 0,0 l/m 0 min 0 min 0 W/m 4,2 km/h (1 Bft) 94,44 %
15.08.2017 05:04 16,2 C 15,0 C 13,3 C 95 % 10 lf 1014,3 hPa 0,0 l/m 0 min 0 min 0 W/m 4,2 km/h (1 Bft) 91,49 %
15.08.2017 05:06 16,1 C 15,0 C 13,3 C 95 % 10 lf 1014,3 hPa 0,0 l/m 0 min 0 min 0 W/m 4,2 km/h (1 Bft) 93,62 %
15.08.2017 05:08 16,1 C 15,0 C 13,3 C 95 % 10 lf 1014,2 hPa 0,0 l/m 0 min 0 min 0 W/m 2,1 km/h (1 Bft) 93,62 %
15.08.2017 05:10 16,1 C 15,0 C 13,3 C 95 % 11 lf 1014,3 hPa 0,0 l/m 0 min 0 min 0 W/m 2,1 km/h (1 Bft) 95,74 %
15.08.2017 05:12 16,1 C 15,0 C 13,3 C 95 % 11 lf 1014,3 hPa 0,0 l/m 0 min 0 min 0 W/m 4,2 km/h (1 Bft) 95,83 %
15.08.2017 05:14 16,0 C 15,0 C 13,3 C 95 % 12 lf 1014,2 hPa 0,0 l/m 0 min 0 min 0 W/m 6,3 km/h (2 Bft) 95,65 %
15.08.2017 05:16 16,0 C 15,0 C 13,3 C 95 % 12 lf 1014,2 hPa 0,0 l/m 0 min 0 min 0 W/m 6,3 km/h (2 Bft) 95,74 %
15.08.2017 05:18 16,0 C 15,0 C 13,3 C 95 % 12 lf 1014,2 hPa 0,0 l/m 0 min 0 min 0 W/m 4,2 km/h (1 Bft) 93,62 %
15.08.2017 05:20 15,9 C 15,6 C 13,9 C 95 % 12 lf 1014,1 hPa 0,0 l/m 0 min 0 min 0 W/m 6,3 km/h (2 Bft) 89,36 %
15.08.2017 05:22 15,9 C 15,6 C 13,9 C 95 % 12 lf 1014,1 hPa 0,0 l/m 0 min 0 min 0 W/m 6,3 km/h (2 Bft) 93,62 %
15.08.2017 05:24 15,9 C 15,6 C 13,9 C 95 % 12 lf 1014,1 hPa 0,0 l/m 0 min 0 min 0 W/m 8,4 km/h (2 Bft) 93,62 %
15.08.2017 05:26 15,9 C 15,6 C 13,9 C 95 % 12 lf 1014,1 hPa 0,0 l/m 0 min 0 min 0 W/m 6,3 km/h (2 Bft) 95,65 %
15.08.2017 05:28 15,9 C 15,6 C 13,9 C 95 % 12 lf 1014,1 hPa 0,0 l/m 0 min 0 min 0 W/m 10,5 km/h (2 Bft) 95,74 %
15.08.2017 05:30 15,9 C 15,6 C 13,9 C 95 % 12 lf 1014,0 hPa 0,0 l/m 0 min 0 min 0 W/m 8,4 km/h (2 Bft) 97,87 %
15.08.2017 05:32 15,9 C 15,6 C 13,9 C 95 % 12 lf 1014,0 hPa 0,0 l/m 0 min 0 min 0 W/m 6,3 km/h (2 Bft) 95,83 %
15.08.2017 05:34 15,9 C 15,6 C 13,9 C 95 % 11 lf 1014,0 hPa 0,0 l/m 0 min 0 min 0 W/m 6,3 km/h (2 Bft) 97,87 %
15.08.2017 05:36 15,9 C 15,6 C 13,9 C 95 % 11 lf 1014,0 hPa 0,0 l/m 0 min 0 min 0 W/m 10,5 km/h (2 Bft) 91,84 %
15.08.2017 05:38 15,9 C 15,6 C 13,9 C 95 % 11 lf 1013,9 hPa 0,0 l/m 0 min 0 min 0 W/m 8,4 km/h (2 Bft) 97,87 %
15.08.2017 05:40 15,9 C 15,6 C 13,9 C 95 % 10 lf 1014,0 hPa 0,0 l/m 0 min 0 min 0 W/m 8,4 km/h (2 Bft) 97,87 %
15.08.2017 05:42 15,9 C 15,6 C 13,9 C 95 % 10 lf 1014,0 hPa 0,0 l/m 0 min 0 min 0 W/m 8,4 km/h (2 Bft) 97,87 %
15.08.2017 05:44 15,9 C 15,6 C 13,9 C 95 % 10 lf 1013,9 hPa 0,0 l/m 0 min 0 min 0 W/m 8,4 km/h (2 Bft) 100,00 %
15.08.2017 05:46 15,9 C 15,6 C 13,9 C 95 % 9 lf 1013,9 hPa 0,0 l/m 0 min 0 min 0 W/m 8,4 km/h (2 Bft) 95,74 %
15.08.2017 05:48 15,9 C 15,6 C 13,9 C 95 % 9 lf 1013,9 hPa 0,0 l/m 0 min 0 min 0 W/m 8,4 km/h (2 Bft) 97,83 %
15.08.2017 05:50 15,9 C 15,6 C 13,9 C 95 % 8 lf 1013,8 hPa 0,0 l/m 0 min 0 min 0 W/m 8,4 km/h (2 Bft) 100,00 %
15.08.2017 05:52 15,9 C 15,6 C 13,9 C 95 % 7 lf 1013,8 hPa 0,0 l/m 0 min 0 min 0 W/m 6,3 km/h (2 Bft) 93,62 %
15.08.2017 05:54 15,9 C 15,6 C 13,9 C 96 % 6 lf 1013,8 hPa 0,0 l/m 0 min 0 min 0 W/m 8,4 km/h (2 Bft) 100,00 %
15.08.2017 05:56 15,9 C 15,6 C 13,9 C 96 % 5 lf 1013,8 hPa 0,0 l/m 0 min 0 min 0 W/m 8,4 km/h (2 Bft) 97,87 %
15.08.2017 05:58 15,9 C 15,6 C 13,9 C 96 % 4 lf 1013,8 hPa 0,0 l/m 0 min 0 min 0 W/m 8,4 km/h (2 Bft) 100,00 %
15.08.2017 06:00 15,9 C 15,6 C 13,9 C 96 % 4 lf 1013,8 hPa 0,0 l/m 0 min 0 min 0 W/m 6,3 km/h (2 Bft) 95,65 %
15.08.2017 06:02 15,9 C 15,6 C 13,9 C 96 % 4 lf 1013,8 hPa 0,0 l/m 0 min 0 min 0 W/m 6,3 km/h (2 Bft) 100,00 %
15.08.2017 06:04 15,9 C 15,6 C 13,9 C 96 % 4 lf 1013,7 hPa 0,0 l/m 0 min 0 min 0 W/m 6,3 km/h (2 Bft) 97,87 %
15.08.2017 06:07 15,9 C 15,6 C 13,9 C 96 % 3 lf 1013,7 hPa 0,0 l/m 0 min 0 min 26 W/m 6,3 km/h (2 Bft) 100,00 %
15.08.2017 06:08 15,9 C 15,6 C 13,9 C 96 % 3 lf 1013,7 hPa 0,0 l/m 0 min 0 min 28 W/m 6,3 km/h (2 Bft) 100,00 %
15.08.2017 06:10 15,9 C 15,6 C 13,9 C 96 % 3 lf 1013,7 hPa 0,0 l/m 0 min 0 min 28 W/m 6,3 km/h (2 Bft) 100,00 %
15.08.2017 06:12 15,9 C 15,6 C 13,9 C 96 % 3 lf 1013,7 hPa 0,0 l/m 0 min 0 min 27 W/m 8,4 km/h (2 Bft) 97,83 %
15.08.2017 06:14 15,9 C 15,6 C 13,9 C 96 % 3 lf 1013,6 hPa 0,0 l/m 0 min 0 min 28 W/m 8,4 km/h (2 Bft) 100,00 %
15.08.2017 06:16 15,9 C 15,6 C 13,9 C 96 % 3 lf 1013,7 hPa 0,0 l/m 0 min 0 min 28 W/m 6,3 km/h (2 Bft) 100,00 %
15.08.2017 06:18 15,9 C 15,6 C 13,9 C 96 % 3 lf 1013,8 hPa 0,0 l/m 0 min 0 min 28 W/m 6,3 km/h (2 Bft) 100,00 %
15.08.2017 06:20 15,9 C 15,6 C 13,9 C 96 % 3 lf 1013,8 hPa 0,0 l/m 0 min 0 min 28 W/m 6,3 km/h (2 Bft) 100,00 %
15.08.2017 06:22 15,9 C 15,6 C 13,9 C 96 % 3 lf 1013,7 hPa 0,0 l/m 0 min 0 min 32 W/m 8,4 km/h (2 Bft) 100,00 %
15.08.2017 06:24 15,9 C 15,6 C 13,9 C 96 % 3 lf 1013,7 hPa 0,0 l/m 0 min 0 min 32 W/m 6,3 km/h (2 Bft) 100,00 %
15.08.2017 06:26 15,9 C 15,6 C 13,9 C 96 % 3 lf 1013,7 hPa 0,0 l/m 0 min 0 min 32 W/m 8,4 km/h (2 Bft) 100,00 %
15.08.2017 06:28 15,8 C 15,6 C 13,9 C 96 % 3 lf 1013,6 hPa 0,0 l/m 0 min 0 min 5 W/m 8,4 km/h (2 Bft) 93,62 %
15.08.2017 06:30 15,9 C 15,6 C 13,9 C 96 % 3 lf 1013,6 hPa 0,0 l/m 0 min 0 min 10 W/m 6,3 km/h (2 Bft) 97,87 %
15.08.2017 06:32 15,8 C 15,6 C 13,9 C 96 % 3 lf 1013,6 hPa 0,0 l/m 0 min 0 min 15 W/m 6,3 km/h (2 Bft) 100,00 %
15.08.2017 06:34 15,8 C 15,6 C 13,9 C 96 % 3 lf 1013,6 hPa 0,0 l/m 2 min 0 min 20 W/m 4,2 km/h (1 Bft) 97,83 %
15.08.2017 06:36 15,8 C 15,0 C 13,9 C 96 % 3 lf 1013,6 hPa 0,0 l/m 2 min 0 min 34 W/m 6,3 km/h (2 Bft) 98,00 %
15.08.2017 06:38 15,8 C 15,0 C 13,9 C 96 % 3 lf 1013,7 hPa 0,0 l/m 2 min 0 min 36 W/m 4,2 km/h (1 Bft) 97,87 %
15.08.2017 06:40 15,8 C 15,0 C 13,9 C 96 % 3 lf 1013,8 hPa 0,0 l/m 2 min 0 min 37 W/m 4,2 km/h (1 Bft) 93,62 %
15.08.2017 06:42 15,8 C 15,0 C 13,9 C 96 % 3 lf 1013,9 hPa 0,0 l/m 2 min 0 min 38 W/m 4,2 km/h (1 Bft) 93,75 %
15.08.2017 06:44 15,8 C 15,0 C 13,3 C 96 % 3 lf 1013,9 hPa 0,0 l/m 2 min 0 min 40 W/m 4,2 km/h (1 Bft) 93,48 %
15.08.2017 06:46 15,8 C 15,0 C 13,3 C 96 % 3 lf 1013,9 hPa 0,0 l/m 2 min 0 min 42 W/m 4,2 km/h (1 Bft) 95,74 %
15.08.2017 06:48 15,8 C 15,0 C 13,3 C 96 % 3 lf 1013,8 hPa 0,0 l/m 2 min 0 min 44 W/m 4,2 km/h (1 Bft) 95,74 %
15.08.2017 06:50 15,8 C 15,0 C 13,3 C 96 % 3 lf 1013,9 hPa 0,0 l/m 2 min 0 min 47 W/m 4,2 km/h (1 Bft) 95,74 %
15.08.2017 06:52 15,7 C 15,0 C 13,3 C 96 % 3 lf 1013,9 hPa 0,0 l/m 2 min 0 min 50 W/m 2,1 km/h (1 Bft) 93,62 %
15.08.2017 06:54 15,7 C 15,6 C 13,9 C 96 % 3 lf 1013,9 hPa 0,0 l/m 2 min 0 min 54 W/m 0,0 km/h (0 Bft) 95,74 %
15.08.2017 06:56 15,7 C 15,0 C 13,3 C 96 % 3 lf 1013,9 hPa 0,0 l/m 2 min 0 min 56 W/m 0,0 km/h (0 Bft) 95,65 %
15.08.2017 06:58 15,7 C 15,6 C 13,9 C 96 % 3 lf 1013,9 hPa 0,0 l/m 2 min 0 min 61 W/m 2,1 km/h (1 Bft) 97,87 %
15.08.2017 07:00 15,7 C 15,6 C 13,9 C 96 % 3 lf 1013,7 hPa 0,0 l/m 2 min 0 min 68 W/m 4,2 km/h (1 Bft) 93,62 %
15.08.2017 07:02 15,7 C 15,0 C 13,9 C 96 % 3 lf 1013,7 hPa 0,0 l/m 2 min 0 min 77 W/m 6,3 km/h (2 Bft) 93,62 %
15.08.2017 07:04 15,7 C 15,6 C 13,9 C 96 % 3 lf 1013,7 hPa 0,0 l/m 2 min 0 min 85 W/m 6,3 km/h (2 Bft) 93,62 %
15.08.2017 07:06 15,7 C 15,6 C 13,9 C 96 % 3 lf 1013,7 hPa 0,0 l/m 2 min 0 min 96 W/m 6,3 km/h (2 Bft) 94,59 %
15.08.2017 07:08 15,7 C 15,6 C 13,9 C 96 % 2 lf 1013,7 hPa 0,0 l/m 2 min 0 min 106 W/m 6,3 km/h (2 Bft) 95,74 %
15.08.2017 07:10 15,7 C 15,6 C 13,9 C 96 % 2 lf 1013,6 hPa 0,0 l/m 2 min 0 min 117 W/m 6,3 km/h (2 Bft) 91,49 %
15.08.2017 07:12 15,7 C 16,1 C 14,4 C 96 % 2 lf 1013,6 hPa 0,0 l/m 2 min 0 min 121 W/m 4,2 km/h (1 Bft) 93,48 %
15.08.2017 07:14 15,7 C 16,1 C 14,4 C 96 % 2 lf 1013,7 hPa 0,0 l/m 2 min 0 min 125 W/m 2,1 km/h (1 Bft) 93,62 %
15.08.2017 07:16 15,7 C 16,1 C 14,4 C 96 % 2 lf 1013,7 hPa 0,0 l/m 2 min 0 min 129 W/m 4,2 km/h (1 Bft) 93,62 %
15.08.2017 07:18 15,7 C 16,1 C 14,4 C 96 % 1 lf 1013,7 hPa 0,0 l/m 2 min 0 min 133 W/m 4,2 km/h (1 Bft) 93,62 %
15.08.2017 07:20 15,7 C 16,1 C 14,4 C 96 % 1 lf 1013,7 hPa 0,0 l/m 2 min 0 min 135 W/m 4,2 km/h (1 Bft) 96,55 %
15.08.2017 07:22 15,7 C 16,7 C 15,0 C 96 % 1 lf 1013,7 hPa 0,0 l/m 2 min 0 min 139 W/m 4,2 km/h (1 Bft) 88,89 %
15.08.2017 07:24 15,8 C 16,7 C 15,0 C 96 % 1 lf 1013,6 hPa 0,0 l/m 2 min 0 min 142 W/m 4,2 km/h (1 Bft) 93,48 %
15.08.2017 07:26 15,8 C 16,7 C 15,0 C 96 % 1 lf 1013,5 hPa 0,0 l/m 2 min 0 min 149 W/m 4,2 km/h (1 Bft) 93,62 %
15.08.2017 07:28 15,8 C 16,7 C 15,0 C 96 % 1 lf 1013,5 hPa 0,0 l/m 2 min 0 min 158 W/m 4,2 km/h (1 Bft) 93,62 %
15.08.2017 07:30 15,8 C 16,7 C 15,0 C 97 % 1 lf 1013,6 hPa 0,0 l/m 2 min 0 min 166 W/m 4,2 km/h (1 Bft) 95,74 %
15.08.2017 07:32 15,9 C 16,7 C 15,0 C 97 % 1 lf 1013,6 hPa 0,0 l/m 2 min 0 min 179 W/m 6,3 km/h (2 Bft) 95,74 %
15.08.2017 07:34 15,9 C 17,2 C 15,6 C 97 % 1 lf 1013,6 hPa 0,0 l/m 2 min 0 min 188 W/m 6,3 km/h (2 Bft) 95,74 %
15.08.2017 07:36 15,9 C 17,2 C 15,6 C 97 % 1 lf 1013,6 hPa 0,0 l/m 2 min 0 min 192 W/m 6,3 km/h (2 Bft) 95,65 %
15.08.2017 07:38 16,0 C 17,2 C 15,6 C 97 % 1 lf 1013,6 hPa 0,0 l/m 2 min 0 min 192 W/m 10,5 km/h (2 Bft) 97,87 %
15.08.2017 07:40 16,1 C 17,2 C 15,6 C 97 % 1 lf 1013,5 hPa 0,0 l/m 2 min 0 min 173 W/m 8,4 km/h (2 Bft) 97,87 %
15.08.2017 07:42 16,1 C 17,8 C 15,6 C 97 % 1 lf 1013,5 hPa 0,0 l/m 2 min 0 min 134 W/m 10,5 km/h (2 Bft) 93,62 %
15.08.2017 07:44 16,2 C 17,2 C 15,6 C 97 % 1 lf 1013,5 hPa 0,0 l/m 2 min 0 min 146 W/m 10,5 km/h (2 Bft) 95,74 %
15.08.2017 07:46 16,3 C 17,2 C 15,6 C 97 % 1 lf 1013,5 hPa 0,0 l/m 2 min 0 min 169 W/m 8,4 km/h (2 Bft) 93,62 %
15.08.2017 07:48 16,3 C 17,2 C 15,6 C 97 % 1 lf 1013,5 hPa 0,0 l/m 2 min 0 min 187 W/m 8,4 km/h (2 Bft) 95,65 %
15.08.2017 07:50 16,4 C 17,2 C 15,6 C 97 % 1 lf 1013,5 hPa 0,0 l/m 2 min 0 min 186 W/m 14,6 km/h (3 Bft) 95,74 %
15.08.2017 07:52 16,4 C 17,2 C 15,6 C 97 % 1 lf 1013,5 hPa 0,0 l/m 2 min 0 min 191 W/m 10,5 km/h (2 Bft) 91,49 %
15.08.2017 07:54 16,5 C 17,8 C 15,6 C 97 % 1 lf 1013,4 hPa 0,0 l/m 2 min 0 min 139 W/m 8,4 km/h (2 Bft) 95,74 %
15.08.2017 07:56 16,6 C 17,8 C 15,6 C 97 % 1 lf 1013,5 hPa 0,0 l/m 2 min 0 min 115 W/m 10,5 km/h (2 Bft) 94,34 %
15.08.2017 07:58 16,6 C 17,8 C 15,6 C 97 % 1 lf 1013,5 hPa 0,0 l/m 2 min 0 min 139 W/m 6,3 km/h (2 Bft) 93,62 %
15.08.2017 08:00 16,6 C 17,8 C 15,6 C 97 % 1 lf 1013,3 hPa 0,0 l/m 2 min 0 min 205 W/m 10,5 km/h (2 Bft) 95,74 %
15.08.2017 08:02 16,7 C 17,8 C 15,6 C 97 % 1 lf 1013,1 hPa 0,0 l/m 2 min 0 min 229 W/m 12,6 km/h (3 Bft) 97,92 %
15.08.2017 08:04 16,7 C 17,8 C 15,6 C 97 % 1 lf 1013,0 hPa 0,0 l/m 2 min 0 min 238 W/m 14,6 km/h (3 Bft) 97,87 %
15.08.2017 08:06 16,8 C 17,8 C 15,6 C 97 % 1 lf 1013,0 hPa 0,0 l/m 2 min 0 min 238 W/m 10,5 km/h (2 Bft) 97,87 %
15.08.2017 08:08 16,8 C 17,8 C 16,1 C 97 % 1 lf 1012,9 hPa 0,0 l/m 2 min 0 min 273 W/m 10,5 km/h (2 Bft) 97,83 %
15.08.2017 08:10 16,8 C 18,3 C 16,1 C 97 % 1 lf 1013,0 hPa 0,0 l/m 2 min 0 min 283 W/m 8,4 km/h (2 Bft) 95,74 %
15.08.2017 08:12 16,9 C 18,3 C 16,1 C 97 % 1 lf 1013,0 hPa 0,0 l/m 2 min 0 min 288 W/m 10,5 km/h (2 Bft) 95,74 %
15.08.2017 08:14 16,9 C 18,9 C 16,7 C 97 % 1 lf 1013,1 hPa 0,0 l/m 2 min 0 min 294 W/m 8,4 km/h (2 Bft) 97,87 %
15.08.2017 08:16 17,0 C 18,9 C 16,7 C 97 % 0 lf 1013,2 hPa 0,0 l/m 2 min 0 min 299 W/m 6,3 km/h (2 Bft) 97,87 %
15.08.2017 08:18 17,1 C 18,9 C 16,7 C 97 % 0 lf 1013,2 hPa 0,0 l/m 2 min 0 min 305 W/m 8,4 km/h (2 Bft) 97,87 %
15.08.2017 08:20 17,2 C 19,4 C 17,2 C 97 % 0 lf 1013,2 hPa 0,0 l/m 2 min 0 min 310 W/m 10,5 km/h (2 Bft) 95,65 %
15.08.2017 08:22 17,3 C 19,4 C 17,2 C 97 % 0 lf 1013,2 hPa 0,0 l/m 2 min 0 min 316 W/m 8,4 km/h (2 Bft) 95,74 %
15.08.2017 08:24 17,3 C 19,4 C 17,2 C 97 % 0 lf 1013,2 hPa 0,0 l/m 2 min 0 min 321 W/m 14,6 km/h (3 Bft) 97,87 %
15.08.2017 08:26 17,4 C 20,0 C 17,8 C 98 % 0 lf 1013,2 hPa 0,0 l/m 2 min 0 min 326 W/m 14,6 km/h (3 Bft) 97,87 %
15.08.2017 08:28 17,5 C 20,0 C 17,8 C 98 % 0 lf 1013,2 hPa 0,0 l/m 2 min 0 min 332 W/m 12,6 km/h (3 Bft) 97,87 %
15.08.2017 08:30 17,6 C 20,0 C 17,8 C 97 % 0 lf 1013,3 hPa 0,0 l/m 2 min 0 min 337 W/m 10,5 km/h (2 Bft) 100,00 %
15.08.2017 08:32 17,7 C 20,0 C 17,8 C 98 % 0 lf 1013,5 hPa 0,0 l/m 2 min 0 min 343 W/m 12,6 km/h (3 Bft) 93,62 %
15.08.2017 08:34 17,8 C 20,0 C 17,8 C 98 % 0 lf 1013,6 hPa 0,0 l/m 2 min 0 min 348 W/m 12,6 km/h (3 Bft) 97,87 %
15.08.2017 08:36 17,9 C 20,0 C 18,3 C 98 % 0 lf 1013,6 hPa 0,0 l/m 2 min 0 min 353 W/m 14,6 km/h (3 Bft) 98,00 %
15.08.2017 08:38 18,0 C 20,0 C 18,3 C 98 % 0 lf 1013,5 hPa 0,0 l/m 2 min 0 min 359 W/m 16,7 km/h (3 Bft) 97,87 %
15.08.2017 08:40 18,1 C 20,6 C 18,3 C 98 % 0 lf 1013,4 hPa 0,0 l/m 2 min 0 min 364 W/m 14,6 km/h (3 Bft) 100,00 %
15.08.2017 08:42 18,2 C 21,1 C 18,9 C 98 % 0 lf 1013,3 hPa 0,0 l/m 2 min 0 min 369 W/m 14,6 km/h (3 Bft) 97,83 %
15.08.2017 08:44 18,2 C 21,7 C 18,9 C 98 % 0 lf 1013,3 hPa 0,0 l/m 2 min 0 min 375 W/m 14,6 km/h (3 Bft) 97,87 %
15.08.2017 08:46 18,3 C 22,8 C 19,4 C 98 % 0 lf 1013,2 hPa 0,0 l/m 2 min 0 min 380 W/m 14,6 km/h (3 Bft) 100,00 %
15.08.2017 08:48 18,4 C 23,3 C 19,4 C 98 % 0 lf 1013,3 hPa 0,0 l/m 2 min 0 min 385 W/m 14,6 km/h (3 Bft) 97,87 %
15.08.2017 08:50 18,6 C 23,3 C 19,4 C 98 % 0 lf 1013,3 hPa 0,0 l/m 2 min 0 min 390 W/m 16,7 km/h (3 Bft) 95,74 %
15.08.2017 08:52 18,7 C 24,4 C 20,0 C 98 % 0 lf 1013,3 hPa 0,0 l/m 2 min 0 min 396 W/m 16,7 km/h (3 Bft) 97,14 %
15.08.2017 08:54 18,8 C 24,4 C 20,0 C 97 % 0 lf 1013,2 hPa 0,0 l/m 2 min 0 min 401 W/m 16,7 km/h (3 Bft) 98,28 %
15.08.2017 08:56 18,9 C 23,3 C 20,0 C 98 % 0 lf 1013,2 hPa 0,0 l/m 2 min 0 min 406 W/m 10,5 km/h (2 Bft) 97,87 %
15.08.2017 08:58 19,0 C 23,3 C 20,6 C 97 % 0 lf 1013,2 hPa 0,0 l/m 2 min 0 min 411 W/m 16,7 km/h (3 Bft) 97,87 %
15.08.2017 09:00 19,1 C 22,8 C 20,6 C 97 % 0 lf 1013,2 hPa 0,0 l/m 2 min 0 min 417 W/m 12,6 km/h (3 Bft) 95,74 %
15.08.2017 09:02 19,2 C 22,8 C 20,6 C 97 % 0 lf 1013,2 hPa 0,0 l/m 2 min 0 min 422 W/m 10,5 km/h (2 Bft) 97,87 %
15.08.2017 09:04 19,3 C 22,2 C 20,6 C 97 % 0 lf 1013,4 hPa 0,0 l/m 2 min 0 min 427 W/m 8,4 km/h (2 Bft) 97,14 %
15.08.2017 09:06 19,4 C 22,2 C 20,6 C 97 % 0 lf 1013,5 hPa 0,0 l/m 2 min 0 min 432 W/m 10,5 km/h (2 Bft) 98,00 %
15.08.2017 09:08 19,4 C 22,2 C 20,6 C 96 % 0 lf 1013,5 hPa 0,0 l/m 2 min 0 min 437 W/m 12,6 km/h (3 Bft) 95,65 %
15.08.2017 09:10 19,6 C 21,7 C 20,6 C 96 % 0 lf 1013,5 hPa 0,0 l/m 2 min 0 min 442 W/m 12,6 km/h (3 Bft) 97,87 %
15.08.2017 09:12 19,6 C 21,7 C 20,6 C 96 % 0 lf 1013,5 hPa 0,0 l/m 2 min 0 min 447 W/m 12,6 km/h (3 Bft) 95,83 %
15.08.2017 09:14 19,7 C 22,2 C 20,6 C 96 % 0 lf 1013,5 hPa 0,0 l/m 2 min 0 min 452 W/m 14,6 km/h (3 Bft) 97,87 %
15.08.2017 09:16 19,8 C 22,2 C 20,6 C 95 % 0 lf 1013,4 hPa 0,0 l/m 2 min 0 min 457 W/m 10,5 km/h (2 Bft) 95,74 %
15.08.2017 09:18 19,8 C 22,2 C 20,6 C 95 % 0 lf 1013,5 hPa 0,0 l/m 2 min 0 min 462 W/m 4,2 km/h (1 Bft) 97,87 %
15.08.2017 09:20 19,9 C 22,2 C 20,6 C 95 % 0 lf 1013,5 hPa 0,0 l/m 2 min 0 min 467 W/m 8,4 km/h (2 Bft) 100,00 %
15.08.2017 09:22 19,9 C 21,7 C 20,6 C 94 % 0 lf 1013,4 hPa 0,0 l/m 2 min 0 min 472 W/m 12,6 km/h (3 Bft) 97,92 %
15.08.2017 09:24 20,0 C 21,7 C 20,6 C 94 % 0 lf 1013,5 hPa 0,0 l/m 2 min 0 min 636 W/m 6,3 km/h (2 Bft) 97,87 %
15.08.2017 09:26 20,0 C 21,7 C 21,1 C 94 % 0 lf 1013,5 hPa 0,0 l/m 2 min 0 min 642 W/m 6,3 km/h (2 Bft) 97,87 %
15.08.2017 09:28 20,1 C 22,2 C 21,1 C 94 % 0 lf 1013,4 hPa 0,0 l/m 2 min 0 min 648 W/m 4,2 km/h (1 Bft) 97,87 %
15.08.2017 09:30 20,1 C 21,7 C 21,1 C 93 % 0 lf 1013,4 hPa 0,0 l/m 2 min 0 min 404 W/m 12,6 km/h (3 Bft) 97,83 %
15.08.2017 09:32 20,2 C 21,7 C 21,1 C 93 % 0 lf 1013,3 hPa 0,0 l/m 0 min 0 min 159 W/m 8,4 km/h (2 Bft) 100,00 %
15.08.2017 09:34 20,2 C 21,7 C 21,1 C 93 % 0 lf 1013,2 hPa 0,0 l/m 0 min 0 min 134 W/m 10,5 km/h (2 Bft) 100,00 %
15.08.2017 09:36 20,3 C 22,2 C 21,1 C 93 % 0 lf 1013,2 hPa 0,0 l/m 0 min 0 min 136 W/m 8,4 km/h (2 Bft) 97,92 %
15.08.2017 09:38 20,3 C 22,2 C 21,1 C 92 % 0 lf 1013,2 hPa 0,0 l/m 0 min 0 min 138 W/m 14,6 km/h (3 Bft) 100,00 %
15.08.2017 09:40 20,4 C 22,8 C 21,1 C 92 % 0 lf 1013,2 hPa 0,0 l/m 0 min 0 min 141 W/m 10,5 km/h (2 Bft) 97,87 %
15.08.2017 09:42 20,4 C 22,8 C 21,7 C 92 % 0 lf 1013,2 hPa 0,0 l/m 0 min 0 min 144 W/m 14,6 km/h (3 Bft) 100,00 %
15.08.2017 09:44 20,5 C 22,8 C 21,7 C 92 % 0 lf 1013,3 hPa 0,0 l/m 0 min 0 min 192 W/m 10,5 km/h (2 Bft) 100,00 %
15.08.2017 09:46 20,6 C 23,3 C 21,7 C 92 % 0 lf 1013,4 hPa 0,0 l/m 0 min 0 min 214 W/m 8,4 km/h (2 Bft) 100,00 %
15.08.2017 09:48 20,6 C 22,8 C 21,7 C 92 % 0 lf 1013,5 hPa 0,0 l/m 0 min 0 min 207 W/m 8,4 km/h (2 Bft) 100,00 %
15.08.2017 09:50 20,6 C 22,8 C 21,1 C 92 % 0 lf 1013,7 hPa 0,0 l/m 0 min 0 min 201 W/m 8,4 km/h (2 Bft) 100,00 %
15.08.2017 09:52 20,7 C 22,2 C 21,1 C 91 % 0 lf 1013,9 hPa 0,0 l/m 0 min 0 min 191 W/m 8,4 km/h (2 Bft) 97,87 %
15.08.2017 09:54 20,7 C 21,7 C 20,6 C 91 % 0 lf 1014,1 hPa 0,0 l/m 0 min 0 min 187 W/m 6,3 km/h (2 Bft) 97,83 %
15.08.2017 09:56 20,7 C 21,1 C 20,6 C 91 % 0 lf 1014,3 hPa 0,0 l/m 0 min 0 min 190 W/m 8,4 km/h (2 Bft) 97,87 %
15.08.2017 09:58 20,8 C 21,1 C 20,0 C 91 % 0 lf 1014,3 hPa 0,0 l/m 0 min 0 min 189 W/m 12,6 km/h (3 Bft) 100,00 %
15.08.2017 10:00 20,8 C 21,1 C 20,0 C 90 % 0 lf 1014,5 hPa 0,0 l/m 0 min 0 min 183 W/m 10,5 km/h (2 Bft) 97,87 %
15.08.2017 10:02 20,8 C 21,1 C 20,0 C 90 % 0 lf 1014,6 hPa 0,0 l/m 0 min 0 min 185 W/m 10,5 km/h (2 Bft) 97,87 %
15.08.2017 10:04 20,8 C 21,1 C 20,0 C 90 % 0 lf 1014,8 hPa 0,0 l/m 0 min 0 min 186 W/m 6,3 km/h (2 Bft) 97,87 %
15.08.2017 10:06 20,8 C 21,1 C 20,0 C 90 % 0 lf 1014,9 hPa 0,0 l/m 0 min 0 min 192 W/m 6,3 km/h (2 Bft) 93,62 %
15.08.2017 10:08 20,8 C 21,1 C 20,0 C 90 % 0 lf 1014,9 hPa 0,0 l/m 0 min 0 min 190 W/m 6,3 km/h (2 Bft) 97,83 %
15.08.2017 10:10 20,8 C 21,1 C 20,0 C 90 % 0 lf 1015,0 hPa 0,0 l/m 0 min 0 min 198 W/m 8,4 km/h (2 Bft) 95,74 %
15.08.2017 10:12 20,8 C 21,1 C 20,0 C 90 % 2 lf 1015,1 hPa 0,0 l/m 0 min 2 min 202 W/m 6,3 km/h (2 Bft) 97,87 %
15.08.2017 10:14 20,8 C 21,1 C 20,0 C 90 % 0 lf 1015,1 hPa 0,0 l/m 0 min 2 min 205 W/m 8,4 km/h (2 Bft) 95,74 %
15.08.2017 10:16 20,8 C 21,1 C 20,0 C 89 % 0 lf 1015,1 hPa 0,0 l/m 0 min 0 min 204 W/m 8,4 km/h (2 Bft) 93,62 %
15.08.2017 10:18 20,8 C 21,1 C 20,0 C 89 % 1 lf 1015,0 hPa 0,0 l/m 0 min 0 min 207 W/m 2,1 km/h (1 Bft) 95,65 %
15.08.2017 10:20 20,8 C 21,1 C 20,0 C 89 % 1 lf 1015,1 hPa 0,0 l/m 0 min 0 min 207 W/m 4,2 km/h (1 Bft) 95,74 %
15.08.2017 10:22 20,8 C 21,1 C 20,0 C 89 % 1 lf 1015,0 hPa 0,0 l/m 0 min 0 min 205 W/m 2,1 km/h (1 Bft) 93,62 %
15.08.2017 10:24 20,8 C 21,1 C 20,0 C 89 % 0 lf 1015,0 hPa 0,0 l/m 0 min 0 min 205 W/m 4,2 km/h (1 Bft) 91,49 %
15.08.2017 10:26 20,8 C 21,1 C 20,0 C 89 % 2 lf 1015,1 hPa 0,0 l/m 0 min 2 min 204 W/m 4,2 km/h (1 Bft) 91,49 %
15.08.2017 10:28 20,8 C 21,1 C 19,4 C 89 % 1 lf 1015,1 hPa 0,0 l/m 0 min 2 min 204 W/m 4,2 km/h (1 Bft) 93,62 %
15.08.2017 10:30 20,8 C 21,1 C 19,4 C 89 % 0 lf 1015,1 hPa 0,0 l/m 0 min 0 min 202 W/m 4,2 km/h (1 Bft) 93,48 %
15.08.2017 10:32 20,8 C 21,1 C 19,4 C 89 % 0 lf 1015,0 hPa 0,0 l/m 0 min 0 min 202 W/m 2,1 km/h (1 Bft) 91,49 %
15.08.2017 10:34 20,8 C 21,1 C 19,4 C 89 % 0 lf 1015,0 hPa 0,0 l/m 0 min 2 min 203 W/m 6,3 km/h (2 Bft) 91,49 %
15.08.2017 10:36 20,9 C 20,6 C 19,4 C 89 % 0 lf 1015,1 hPa 0,0 l/m 0 min 0 min 204 W/m 4,2 km/h (1 Bft) 92,86 %
15.08.2017 10:38 20,8 C 20,6 C 19,4 C 89 % 0 lf 1015,0 hPa 0,0 l/m 0 min 0 min 202 W/m 4,2 km/h (1 Bft) 93,62 %
15.08.2017 10:40 20,8 C 20,6 C 19,4 C 89 % 0 lf 1015,0 hPa 0,0 l/m 0 min 0 min 201 W/m 4,2 km/h (1 Bft) 93,62 %
15.08.2017 10:42 20,8 C 20,6 C 19,4 C 89 % 0 lf 1015,0 hPa 0,0 l/m 0 min 0 min 203 W/m 4,2 km/h (1 Bft) 93,48 %
15.08.2017 10:44 20,8 C 21,1 C 19,4 C 89 % 0 lf 1015,1 hPa 0,0 l/m 0 min 0 min 197 W/m 4,2 km/h (1 Bft) 93,62 %
15.08.2017 10:46 20,8 C 20,6 C 19,4 C 89 % 0 lf 1015,1 hPa 0,0 l/m 0 min 0 min 199 W/m 2,1 km/h (1 Bft) 91,49 %
15.08.2017 10:48 20,8 C 20,6 C 19,4 C 89 % 0 lf 1015,1 hPa 0,0 l/m 0 min 0 min 199 W/m 6,3 km/h (2 Bft) 93,62 %
15.08.2017 10:50 20,8 C 20,6 C 19,4 C 89 % 0 lf 1015,1 hPa 0,0 l/m 0 min 0 min 198 W/m 2,1 km/h (1 Bft) 91,49 %
15.08.2017 10:52 20,8 C 20,6 C 19,4 C 89 % 0 lf 1015,1 hPa 0,0 l/m 0 min 0 min 197 W/m 4,2 km/h (1 Bft) 93,62 %
15.08.2017 10:54 20,8 C 20,6 C 19,4 C 89 % 0 lf 1015,1 hPa 0,0 l/m 0 min 0 min 196 W/m 4,2 km/h (1 Bft) 93,48 %
15.08.2017 10:56 20,8 C 20,6 C 19,4 C 89 % 0 lf 1015,1 hPa 0,0 l/m 0 min 0 min 196 W/m 6,3 km/h (2 Bft) 91,49 %
15.08.2017 10:58 20,8 C 20,6 C 18,9 C 89 % 0 lf 1015,2 hPa 0,0 l/m 0 min 0 min 193 W/m 8,4 km/h (2 Bft) 91,49 %
15.08.2017 11:00 20,8 C 20,6 C 18,9 C 89 % 0 lf 1015,3 hPa 0,0 l/m 0 min 0 min 191 W/m 10,5 km/h (2 Bft) 91,49 %
15.08.2017 11:02 20,7 C 20,0 C 18,9 C 89 % 1 lf 1015,2 hPa 0,0 l/m 0 min 0 min 194 W/m 8,4 km/h (2 Bft) 93,62 %
15.08.2017 11:04 20,7 C 20,0 C 18,9 C 89 % 2 lf 1015,2 hPa 0,0 l/m 0 min 2 min 195 W/m 10,5 km/h (2 Bft) 91,49 %
15.08.2017 11:06 20,7 C 20,0 C 18,9 C 89 % 3 lf 1015,2 hPa 0,0 l/m 0 min 2 min 195 W/m 6,3 km/h (2 Bft) 91,84 %
15.08.2017 11:08 20,7 C 20,0 C 18,9 C 89 % 7 lf 1015,2 hPa 0,0 l/m 0 min 2 min 193 W/m 8,4 km/h (2 Bft) 95,74 %
15.08.2017 11:10 20,7 C 19,4 C 18,3 C 89 % 15 lf 1015,2 hPa 0,0 l/m 0 min 2 min 14 W/m 6,3 km/h (2 Bft) 93,62 %
15.08.2017 11:12 20,7 C 18,9 C 18,3 C 89 % 15 lf 1015,1 hPa 0,0 l/m 0 min 2 min 10 W/m 10,5 km/h (2 Bft) 97,92 %
15.08.2017 11:14 20,6 C 18,9 C 17,8 C 89 % 15 lf 1015,2 hPa 0,0 l/m 0 min 2 min 10 W/m 14,6 km/h (3 Bft) 93,62 %
15.08.2017 11:16 20,6 C 18,9 C 17,8 C 89 % 15 lf 1015,2 hPa 0,0 l/m 0 min 2 min 10 W/m 8,4 km/h (2 Bft) 89,13 %
15.08.2017 11:18 20,6 C 18,9 C 17,8 C 89 % 15 lf 1015,2 hPa 0,0 l/m 0 min 2 min 9 W/m 8,4 km/h (2 Bft) 95,74 %
15.08.2017 11:20 20,6 C 18,3 C 17,8 C 89 % 15 lf 1015,2 hPa 0,2 l/m 0 min 2 min 23 W/m 10,5 km/h (2 Bft) 95,74 %
15.08.2017 11:22 20,6 C 18,3 C 17,2 C 89 % 15 lf 1015,1 hPa 0,0 l/m 0 min 2 min 28 W/m 12,6 km/h (3 Bft) 97,87 %
15.08.2017 11:24 20,5 C 18,3 C 17,2 C 89 % 15 lf 1015,1 hPa 0,0 l/m 0 min 2 min 26 W/m 10,5 km/h (2 Bft) 93,75 %
15.08.2017 11:26 20,4 C 17,8 C 17,2 C 89 % 15 lf 1015,0 hPa 0,0 l/m 0 min 2 min 28 W/m 10,5 km/h (2 Bft) 97,87 %
15.08.2017 11:28 20,4 C 17,8 C 17,2 C 89 % 15 lf 1015,0 hPa 0,2 l/m 0 min 2 min 30 W/m 10,5 km/h (2 Bft) 97,83 %
15.08.2017 11:30 20,4 C 17,8 C 17,2 C 90 % 15 lf 1014,6 hPa 0,0 l/m 0 min 2 min 36 W/m 10,5 km/h (2 Bft) 95,74 %
15.08.2017 11:32 20,3 C 17,8 C 17,2 C 90 % 15 lf 1014,2 hPa 0,2 l/m 0 min 2 min 43 W/m 16,7 km/h (3 Bft) 95,74 %
15.08.2017 11:34 20,3 C 17,8 C 17,2 C 90 % 15 lf 1013,9 hPa 0,2 l/m 0 min 2 min 50 W/m 16,7 km/h (3 Bft) 97,87 %
15.08.2017 11:36 20,2 C 17,8 C 17,2 C 90 % 15 lf 1013,7 hPa 0,0 l/m 0 min 2 min 56 W/m 14,6 km/h (3 Bft) 100,00 %
15.08.2017 11:38 20,1 C 17,8 C 17,2 C 90 % 15 lf 1013,6 hPa 0,0 l/m 0 min 2 min 58 W/m 14,6 km/h (3 Bft) 97,87 %
15.08.2017 11:40 20,1 C 17,8 C 17,2 C 90 % 15 lf 1013,7 hPa 0,0 l/m 0 min 2 min 60 W/m 16,7 km/h (3 Bft) 100,00 %
15.08.2017 11:42 20,0 C 17,8 C 17,2 C 91 % 15 lf 1013,6 hPa 0,0 l/m 0 min 2 min 61 W/m 16,7 km/h (3 Bft) 100,00 %
15.08.2017 11:44 19,9 C 17,8 C 17,2 C 91 % 15 lf 1013,5 hPa 0,2 l/m 0 min 2 min 57 W/m 16,7 km/h (3 Bft) 97,87 %
15.08.2017 11:46 19,9 C 17,8 C 17,2 C 91 % 15 lf 1013,5 hPa 0,0 l/m 0 min 2 min 52 W/m 16,7 km/h (3 Bft) 100,00 %
15.08.2017 11:48 19,8 C 17,8 C 17,2 C 91 % 15 lf 1013,6 hPa 0,0 l/m 0 min 2 min 49 W/m 14,6 km/h (3 Bft) 100,00 %
15.08.2017 11:50 19,8 C 17,8 C 17,2 C 91 % 15 lf 1013,9 hPa 0,0 l/m 0 min 0 min 50 W/m 12,6 km/h (3 Bft) 100,00 %
15.08.2017 11:52 19,8 C 18,3 C 17,2 C 91 % 15 lf 1014,2 hPa 0,0 l/m 0 min 2 min 53 W/m 6,3 km/h (2 Bft) 100,00 %
15.08.2017 11:54 19,8 C 18,3 C 17,2 C 92 % 15 lf 1014,3 hPa 0,0 l/m 0 min 2 min 64 W/m 2,1 km/h (1 Bft) 100,00 %
15.08.2017 11:56 19,7 C 18,3 C 17,8 C 92 % 15 lf 1014,3 hPa 0,0 l/m 0 min 2 min 78 W/m 4,2 km/h (1 Bft) 95,74 %
15.08.2017 11:58 19,7 C 18,3 C 17,8 C 92 % 15 lf 1014,3 hPa 0,0 l/m 0 min 2 min 86 W/m 6,3 km/h (2 Bft) 100,00 %
15.08.2017 12:00 19,7 C 18,3 C 17,8 C 92 % 15 lf 1014,3 hPa 0,0 l/m 0 min 2 min 90 W/m 4,2 km/h (1 Bft) 100,00 %
15.08.2017 12:02 19,7 C 18,3 C 17,8 C 92 % 15 lf 1014,2 hPa 0,0 l/m 0 min 2 min 94 W/m 4,2 km/h (1 Bft) 97,87 %
15.08.2017 12:04 19,7 C 18,3 C 17,8 C 92 % 15 lf 1014,2 hPa 0,0 l/m 0 min 2 min 100 W/m 4,2 km/h (1 Bft) 100,00 %
15.08.2017 12:06 19,7 C 18,3 C 18,3 C 92 % 15 lf 1014,1 hPa 0,2 l/m 0 min 2 min 115 W/m 2,1 km/h (1 Bft) 96,00 %
15.08.2017 12:10 19,7 C 18,9 C 18,3 C 93 % 15 lf 1013,9 hPa 0,0 l/m 0 min 4 min 133 W/m 4,2 km/h (1 Bft) 100,00 %
15.08.2017 12:12 19,7 C 18,9 C 18,3 C 93 % 15 lf 1013,7 hPa 0,0 l/m 0 min 2 min 141 W/m 2,1 km/h (1 Bft) 97,87 %
15.08.2017 12:14 19,7 C 18,9 C 18,3 C 93 % 15 lf 1013,6 hPa 0,0 l/m 0 min 0 min 144 W/m 4,2 km/h (1 Bft) 100,00 %
15.08.2017 12:16 19,7 C 18,9 C 18,3 C 93 % 15 lf 1013,5 hPa 0,0 l/m 0 min 0 min 154 W/m 4,2 km/h (1 Bft) 100,00 %
15.08.2017 12:18 19,7 C 19,4 C 18,9 C 93 % 15 lf 1013,5 hPa 0,0 l/m 0 min 0 min 169 W/m 4,2 km/h (1 Bft) 100,00 %
15.08.2017 12:20 19,7 C 19,4 C 18,9 C 93 % 15 lf 1013,5 hPa 0,0 l/m 0 min 0 min 190 W/m 0,0 km/h (0 Bft) 100,00 %
15.08.2017 12:22 19,8 C 20,0 C 18,9 C 94 % 15 lf 1013,3 hPa 0,0 l/m 0 min 0 min 207 W/m 0,0 km/h (0 Bft) 100,00 %
15.08.2017 12:24 19,8 C 19,4 C 19,4 C 94 % 15 lf 1013,3 hPa 0,0 l/m 0 min 0 min 221 W/m 0,0 km/h (0 Bft) 91,30 %
15.08.2017 12:26 19,8 C 20,0 C 20,0 C 94 % 15 lf 1013,2 hPa 0,0 l/m 0 min 0 min 235 W/m 0,0 km/h (0 Bft) 100,00 %
15.08.2017 12:28 19,9 C 20,0 C 20,0 C 94 % 14 lf 1013,2 hPa 0,0 l/m 0 min 0 min 249 W/m 0,0 km/h (0 Bft) 97,87 %
15.08.2017 12:30 19,9 C 20,0 C 20,0 C 94 % 12 lf 1013,1 hPa 0,0 l/m 0 min 0 min 261 W/m 0,0 km/h (0 Bft) 100,00 %
15.08.2017 12:32 20,0 C 20,0 C 20,6 C 94 % 4 lf 1013,0 hPa 0,0 l/m 0 min 0 min 272 W/m 10,5 km/h (2 Bft) 100,00 %
15.08.2017 12:34 20,1 C 20,6 C 20,6 C 95 % 1 lf 1012,9 hPa 0,0 l/m 0 min 0 min 287 W/m 6,3 km/h (2 Bft) 100,00 %
15.08.2017 12:36 20,1 C 20,6 C 21,1 C 95 % 0 lf 1012,7 hPa 0,0 l/m 0 min 0 min 298 W/m 10,5 km/h (2 Bft) 100,00 %
15.08.2017 12:38 20,2 C 20,6 C 21,1 C 95 % 0 lf 1012,5 hPa 0,0 l/m 0 min 0 min 314 W/m 8,4 km/h (2 Bft) 100,00 %
15.08.2017 12:40 20,2 C 21,1 C 21,1 C 95 % 0 lf 1012,5 hPa 0,0 l/m 0 min 0 min 342 W/m 10,5 km/h (2 Bft) 100,00 %
15.08.2017 12:42 20,2 C 21,1 C 21,7 C 95 % 0 lf 1012,4 hPa 0,0 l/m 0 min 0 min 356 W/m 12,6 km/h (3 Bft) 100,00 %
15.08.2017 12:44 20,3 C 21,7 C 21,7 C 95 % 0 lf 1012,3 hPa 0,0 l/m 2 min 0 min 400 W/m 10,5 km/h (2 Bft) 97,87 %
15.08.2017 12:46 20,4 C 22,2 C 21,7 C 95 % 0 lf 1012,3 hPa 0,0 l/m 2 min 0 min 392 W/m 10,5 km/h (2 Bft) 100,00 %
15.08.2017 12:48 20,4 C 22,8 C 21,7 C 95 % 0 lf 1012,2 hPa 0,0 l/m 2 min 0 min 387 W/m 12,6 km/h (3 Bft) 97,87 %
15.08.2017 12:50 20,6 C 22,8 C 22,2 C 95 % 0 lf 1012,1 hPa 0,0 l/m 2 min 0 min 456 W/m 10,5 km/h (2 Bft) 97,87 %
15.08.2017 12:52 20,7 C 23,9 C 22,8 C 96 % 0 lf 1012,1 hPa 0,0 l/m 2 min 0 min 608 W/m 10,5 km/h (2 Bft) 97,83 %
15.08.2017 12:54 20,8 C 23,9 C 22,8 C 96 % 0 lf 1012,1 hPa 0,0 l/m 2 min 0 min 592 W/m 16,7 km/h (3 Bft) 97,87 %
15.08.2017 12:56 21,0 C 23,9 C 22,8 C 96 % 0 lf 1012,1 hPa 0,0 l/m 2 min 0 min 505 W/m 8,4 km/h (2 Bft) 97,87 %
15.08.2017 12:58 21,1 C 25,0 C 23,3 C 96 % 0 lf 1012,0 hPa 0,0 l/m 2 min 0 min 705 W/m 12,6 km/h (3 Bft) 97,87 %
15.08.2017 13:00 21,2 C 24,4 C 23,3 C 96 % 0 lf 1012,0 hPa 0,0 l/m 2 min 0 min 750 W/m 16,7 km/h (3 Bft) 100,00 %
15.08.2017 13:02 21,2 C 25,0 C 23,3 C 95 % 0 lf 1011,8 hPa 0,0 l/m 2 min 0 min 747 W/m 18,8 km/h (3 Bft) 93,75 %
15.08.2017 13:04 21,3 C 24,4 C 23,9 C 95 % 0 lf 1011,9 hPa 0,0 l/m 2 min 0 min 759 W/m 18,8 km/h (3 Bft) 97,67 %
15.08.2017 13:06 21,3 C 24,4 C 23,9 C 95 % 0 lf 1012,0 hPa 0,0 l/m 2 min 0 min 790 W/m 18,8 km/h (3 Bft) 93,48 %
15.08.2017 13:08 21,4 C 25,0 C 24,4 C 94 % 0 lf 1012,1 hPa 0,0 l/m 2 min 0 min 810 W/m 18,8 km/h (3 Bft) 97,87 %
15.08.2017 13:10 21,6 C 24,4 C 23,9 C 94 % 0 lf 1012,1 hPa 0,0 l/m 2 min 0 min 746 W/m 16,7 km/h (3 Bft) 93,62 %
15.08.2017 13:12 21,7 C 25,0 C 23,3 C 93 % 0 lf 1012,1 hPa 0,0 l/m 2 min 0 min 672 W/m 20,9 km/h (4 Bft) 91,49 %
15.08.2017 13:14 21,8 C 26,1 C 23,3 C 92 % 0 lf 1012,1 hPa 0,0 l/m 2 min 0 min 767 W/m 20,9 km/h (4 Bft) 95,74 %
15.08.2017 13:16 22,0 C 28,3 C 23,3 C 91 % 0 lf 1012,1 hPa 0,0 l/m 2 min 0 min 823 W/m 18,8 km/h (3 Bft) 95,65 %
15.08.2017 13:18 22,2 C 27,2 C 22,8 C 90 % 0 lf 1012,2 hPa 0,0 l/m 2 min 0 min 791 W/m 27,2 km/h (4 Bft) 95,74 %
15.08.2017 13:20 22,3 C 27,8 C 22,8 C 88 % 0 lf 1012,2 hPa 0,0 l/m 2 min 0 min 450 W/m 23,0 km/h (4 Bft) 93,62 %
15.08.2017 13:22 22,4 C 27,8 C 22,8 C 87 % 0 lf 1012,2 hPa 0,0 l/m 2 min 0 min 450 W/m 23,0 km/h (4 Bft) 95,74 %
15.08.2017 13:24 22,6 C 28,3 C 22,8 C 86 % 0 lf 1012,3 hPa 0,0 l/m 2 min 0 min 638 W/m 20,9 km/h (4 Bft) 91,49 %
15.08.2017 13:26 22,7 C 29,4 C 22,8 C 85 % 0 lf 1012,3 hPa 0,0 l/m 2 min 0 min 806 W/m 18,8 km/h (3 Bft) 93,62 %
15.08.2017 13:28 22,8 C 30,0 C 22,8 C 85 % 0 lf 1012,3 hPa 0,0 l/m 2 min 0 min 781 W/m 20,9 km/h (4 Bft) 89,13 %
15.08.2017 13:30 23,0 C 30,0 C 22,8 C 85 % 0 lf 1012,3 hPa 0,0 l/m 2 min 0 min 788 W/m 27,2 km/h (4 Bft) 91,49 %
15.08.2017 13:32 23,2 C 30,0 C 23,3 C 84 % 0 lf 1012,3 hPa 0,0 l/m 2 min 0 min 805 W/m 16,7 km/h (3 Bft) 91,49 %
15.08.2017 13:34 23,3 C 30,0 C 23,3 C 83 % 0 lf 1012,4 hPa 0,0 l/m 2 min 0 min 785 W/m 23,0 km/h (4 Bft) 93,62 %
15.08.2017 13:36 23,4 C 28,9 C 23,3 C 82 % 0 lf 1012,5 hPa 0,0 l/m 2 min 0 min 787 W/m 14,6 km/h (3 Bft) 94,55 %
15.08.2017 13:38 23,6 C 30,0 C 23,3 C 81 % 0 lf 1012,4 hPa 0,0 l/m 2 min 0 min 807 W/m 20,9 km/h (4 Bft) 93,62 %
15.08.2017 13:40 23,7 C 31,1 C 23,3 C 80 % 0 lf 1012,5 hPa 0,0 l/m 2 min 0 min 826 W/m 18,8 km/h (3 Bft) 91,49 %
15.08.2017 13:42 23,8 C 31,1 C 23,3 C 79 % 0 lf 1012,5 hPa 0,0 l/m 2 min 0 min 782 W/m 18,8 km/h (3 Bft) 91,67 %
15.08.2017 13:44 24,0 C 31,7 C 23,9 C 79 % 0 lf 1012,5 hPa 0,0 l/m 2 min 0 min 847 W/m 18,8 km/h (3 Bft) 91,49 %
15.08.2017 13:46 24,2 C 31,7 C 23,9 C 78 % 0 lf 1012,6 hPa 0,0 l/m 2 min 0 min 819 W/m 18,8 km/h (3 Bft) 91,49 %
15.08.2017 13:48 24,3 C 31,1 C 24,4 C 77 % 0 lf 1012,6 hPa 0,0 l/m 2 min 0 min 806 W/m 18,8 km/h (3 Bft) 93,48 %
15.08.2017 13:50 24,4 C 31,7 C 24,4 C 76 % 0 lf 1012,6 hPa 0,0 l/m 2 min 0 min 814 W/m 12,6 km/h (3 Bft) 91,49 %
15.08.2017 13:52 24,6 C 31,1 C 25,0 C 74 % 0 lf 1012,5 hPa 0,0 l/m 2 min 0 min 822 W/m 20,9 km/h (4 Bft) 95,74 %
15.08.2017 13:54 24,7 C 32,2 C 25,0 C 74 % 0 lf 1012,6 hPa 0,0 l/m 2 min 0 min 824 W/m 14,6 km/h (3 Bft) 95,74 %
15.08.2017 13:56 24,8 C 32,8 C 25,6 C 74 % 0 lf 1012,6 hPa 0,0 l/m 2 min 0 min 839 W/m 14,6 km/h (3 Bft) 93,62 %
15.08.2017 13:58 24,9 C 31,7 C 25,6 C 71 % 0 lf 1012,6 hPa 0,0 l/m 2 min 0 min 851 W/m 23,0 km/h (4 Bft) 95,74 %
15.08.2017 14:00 25,1 C 30,6 C 25,6 C 69 % 0 lf 1012,6 hPa 0,0 l/m 2 min 0 min 804 W/m 23,0 km/h (4 Bft) 95,65 %
15.08.2017 14:02 25,1 C 28,9 C 25,6 C 69 % 0 lf 1012,6 hPa 0,0 l/m 0 min 0 min 342 W/m 18,8 km/h (3 Bft) 95,83 %
15.08.2017 14:04 25,2 C 28,3 C 25,6 C 70 % 0 lf 1012,6 hPa 0,0 l/m 0 min 0 min 320 W/m 12,6 km/h (3 Bft) 93,62 %
15.08.2017 14:06 25,3 C 27,2 C 25,6 C 70 % 0 lf 1012,5 hPa 0,0 l/m 0 min 0 min 289 W/m 16,7 km/h (3 Bft) 95,74 %
15.08.2017 14:08 25,3 C 26,1 C 25,6 C 69 % 0 lf 1012,6 hPa 0,0 l/m 0 min 0 min 296 W/m 16,7 km/h (3 Bft) 95,83 %
15.08.2017 14:10 25,3 C 25,6 C 25,6 C 68 % 0 lf 1012,6 hPa 0,0 l/m 0 min 0 min 315 W/m 18,8 km/h (3 Bft) 91,49 %
15.08.2017 14:12 25,2 C 26,1 C 25,6 C 68 % 0 lf 1012,6 hPa 0,0 l/m 0 min 0 min 353 W/m 18,8 km/h (3 Bft) 93,48 %
15.08.2017 14:14 25,2 C 26,7 C 26,1 C 68 % 0 lf 1012,6 hPa 0,0 l/m 2 min 0 min 435 W/m 16,7 km/h (3 Bft) 93,62 %
15.08.2017 14:16 25,2 C 26,7 C 26,7 C 68 % 0 lf 1012,7 hPa 0,0 l/m 2 min 0 min 454 W/m 14,6 km/h (3 Bft) 95,74 %
15.08.2017 14:18 25,2 C 26,7 C 26,7 C 68 % 0 lf 1012,7 hPa 0,0 l/m 0 min 0 min 355 W/m 18,8 km/h (3 Bft) 100,00 %
15.08.2017 14:20 25,1 C 26,1 C 26,1 C 69 % 0 lf 1012,7 hPa 0,0 l/m 0 min 0 min 293 W/m 12,6 km/h (3 Bft) 100,00 %
15.08.2017 14:22 25,1 C 26,1 C 26,1 C 68 % 0 lf 1012,7 hPa 0,0 l/m 0 min 0 min 275 W/m 18,8 km/h (3 Bft) 95,74 %
15.08.2017 14:24 25,1 C 26,1 C 25,6 C 68 % 0 lf 1012,7 hPa 0,0 l/m 0 min 0 min 279 W/m 16,7 km/h (3 Bft) 100,00 %
15.08.2017 14:26 25,1 C 26,1 C 25,6 C 68 % 0 lf 1012,7 hPa 0,0 l/m 0 min 0 min 305 W/m 10,5 km/h (2 Bft) 97,87 %
15.08.2017 14:28 25,1 C 26,7 C 26,7 C 69 % 0 lf 1012,7 hPa 0,0 l/m 0 min 0 min 326 W/m 14,6 km/h (3 Bft) 95,74 %
15.08.2017 14:30 25,1 C 26,1 C 26,7 C 69 % 0 lf 1012,6 hPa 0,0 l/m 0 min 0 min 329 W/m 12,6 km/h (3 Bft) 100,00 %
15.08.2017 14:32 25,1 C 26,1 C 26,1 C 69 % 0 lf 1012,7 hPa 0,0 l/m 0 min 0 min 305 W/m 12,6 km/h (3 Bft) 100,00 %
15.08.2017 14:34 25,1 C 26,1 C 26,1 C 70 % 0 lf 1012,6 hPa 0,0 l/m 0 min 0 min 291 W/m 10,5 km/h (2 Bft) 100,00 %
15.08.2017 14:36 25,1 C 26,1 C 26,1 C 70 % 0 lf 1012,7 hPa 0,0 l/m 0 min 0 min 285 W/m 18,8 km/h (3 Bft) 96,23 %
15.08.2017 14:38 25,1 C 26,1 C 25,6 C 67 % 0 lf 1012,7 hPa 0,0 l/m 0 min 0 min 280 W/m 33,5 km/h (5 Bft) 100,00 %
15.08.2017 14:40 25,0 C 25,6 C 25,6 C 67 % 0 lf 1012,7 hPa 0,0 l/m 0 min 0 min 305 W/m 23,0 km/h (4 Bft) 97,87 %
15.08.2017 14:42 24,9 C 26,1 C 25,6 C 66 % 0 lf 1012,7 hPa 0,0 l/m 0 min 0 min 326 W/m 23,0 km/h (4 Bft) 97,87 %
15.08.2017 14:44 24,9 C 26,1 C 25,6 C 66 % 0 lf 1012,8 hPa 0,0 l/m 0 min 0 min 312 W/m 18,8 km/h (3 Bft) 100,00 %
15.08.2017 14:46 24,9 C 26,1 C 25,0 C 67 % 0 lf 1012,7 hPa 0,0 l/m 0 min 0 min 298 W/m 10,5 km/h (2 Bft) 100,00 %
15.08.2017 14:48 24,9 C 26,1 C 25,6 C 67 % 0 lf 1012,8 hPa 0,0 l/m 0 min 0 min 283 W/m 20,9 km/h (4 Bft) 100,00 %
15.08.2017 14:50 24,9 C 25,6 C 25,6 C 66 % 0 lf 1012,8 hPa 0,0 l/m 0 min 0 min 282 W/m 20,9 km/h (4 Bft) 100,00 %
15.08.2017 14:52 24,8 C 25,0 C 25,6 C 67 % 0 lf 1012,7 hPa 0,0 l/m 0 min 0 min 280 W/m 20,9 km/h (4 Bft) 100,00 %
15.08.2017 14:54 24,8 C 25,0 C 25,6 C 67 % 0 lf 1012,8 hPa 0,0 l/m 0 min 0 min 247 W/m 16,7 km/h (3 Bft) 100,00 %
15.08.2017 14:56 24,8 C 25,6 C 25,0 C 68 % 0 lf 1012,7 hPa 0,0 l/m 0 min 0 min 215 W/m 12,6 km/h (3 Bft) 97,87 %
15.08.2017 14:58 24,8 C 25,0 C 25,0 C 68 % 0 lf 1012,8 hPa 0,0 l/m 0 min 0 min 209 W/m 14,6 km/h (3 Bft) 97,83 %
15.08.2017 15:00 24,8 C 25,6 C 24,4 C 68 % 0 lf 1012,8 hPa 0,0 l/m 0 min 0 min 210 W/m 10,5 km/h (2 Bft) 95,74 %
15.08.2017 15:02 24,7 C 25,6 C 24,4 C 69 % 0 lf 1012,9 hPa 0,0 l/m 0 min 0 min 194 W/m 12,6 km/h (3 Bft) 100,00 %
15.08.2017 15:04 24,7 C 25,6 C 24,4 C 69 % 0 lf 1013,0 hPa 0,0 l/m 0 min 0 min 183 W/m 10,5 km/h (2 Bft) 100,00 %
15.08.2017 15:06 24,7 C 25,0 C 24,4 C 69 % 0 lf 1012,9 hPa 0,0 l/m 0 min 0 min 190 W/m 16,7 km/h (3 Bft) 97,87 %
15.08.2017 15:08 24,6 C 25,0 C 23,9 C 69 % 0 lf 1013,1 hPa 0,0 l/m 0 min 0 min 205 W/m 14,6 km/h (3 Bft) 95,74 %
15.08.2017 15:10 24,6 C 25,0 C 24,4 C 70 % 0 lf 1012,9 hPa 0,0 l/m 0 min 0 min 240 W/m 18,8 km/h (3 Bft) 97,83 %
15.08.2017 15:12 24,6 C 25,6 C 24,4 C 71 % 0 lf 1013,1 hPa 0,0 l/m 0 min 0 min 297 W/m 12,6 km/h (3 Bft) 97,87 %
15.08.2017 15:14 24,6 C 26,1 C 25,6 C 72 % 0 lf 1012,9 hPa 0,0 l/m 0 min 0 min 321 W/m 12,6 km/h (3 Bft) 95,74 %
15.08.2017 15:16 24,6 C 26,1 C 25,6 C 72 % 0 lf 1012,9 hPa 0,0 l/m 0 min 0 min 295 W/m 10,5 km/h (2 Bft) 95,74 %
15.08.2017 15:18 24,6 C 26,1 C 25,6 C 72 % 0 lf 1013,0 hPa 0,0 l/m 0 min 0 min 259 W/m 14,6 km/h (3 Bft) 97,87 %
15.08.2017 15:20 24,6 C 25,6 C 25,0 C 72 % 0 lf 1013,1 hPa 0,0 l/m 0 min 0 min 224 W/m 16,7 km/h (3 Bft) 97,87 %
15.08.2017 15:22 24,6 C 25,6 C 25,0 C 72 % 0 lf 1013,2 hPa 0,0 l/m 0 min 0 min 190 W/m 16,7 km/h (3 Bft) 95,74 %
15.08.2017 15:24 24,6 C 25,0 C 24,4 C 73 % 0 lf 1013,3 hPa 0,0 l/m 0 min 0 min 173 W/m 23,0 km/h (4 Bft) 97,83 %
15.08.2017 15:26 24,6 C 25,0 C 23,9 C 72 % 0 lf 1013,3 hPa 0,0 l/m 0 min 0 min 171 W/m 18,8 km/h (3 Bft) 97,87 %
15.08.2017 15:28 24,6 C 25,0 C 23,9 C 73 % 0 lf 1013,3 hPa 0,0 l/m 0 min 0 min 178 W/m 18,8 km/h (3 Bft) 97,87 %
15.08.2017 15:30 24,5 C 25,0 C 23,9 C 73 % 0 lf 1013,3 hPa 0,0 l/m 0 min 0 min 194 W/m 14,6 km/h (3 Bft) 95,74 %
15.08.2017 15:32 24,5 C 24,4 C 23,9 C 73 % 0 lf 1013,4 hPa 0,0 l/m 0 min 0 min 199 W/m 18,8 km/h (3 Bft) 91,67 %
15.08.2017 15:34 24,4 C 25,0 C 23,9 C 73 % 0 lf 1013,4 hPa 0,0 l/m 0 min 0 min 203 W/m 20,9 km/h (4 Bft) 97,83 %
15.08.2017 15:36 24,4 C 25,0 C 23,9 C 73 % 0 lf 1013,4 hPa 0,0 l/m 0 min 0 min 207 W/m 14,6 km/h (3 Bft) 97,92 %
15.08.2017 15:38 24,4 C 25,0 C 23,9 C 74 % 0 lf 1013,4 hPa 0,0 l/m 0 min 0 min 214 W/m 10,5 km/h (2 Bft) 95,74 %
15.08.2017 15:40 24,4 C 25,6 C 24,4 C 74 % 0 lf 1013,4 hPa 0,0 l/m 0 min 0 min 237 W/m 10,5 km/h (2 Bft) 100,00 %
15.08.2017 15:42 24,3 C 25,6 C 24,4 C 74 % 0 lf 1013,3 hPa 0,0 l/m 0 min 0 min 242 W/m 12,6 km/h (3 Bft) 95,74 %
15.08.2017 15:44 24,3 C 25,6 C 25,0 C 75 % 0 lf 1013,3 hPa 0,0 l/m 0 min 0 min 252 W/m 12,6 km/h (3 Bft) 97,87 %
15.08.2017 15:46 24,3 C 25,6 C 25,0 C 74 % 0 lf 1013,3 hPa 0,0 l/m 0 min 0 min 320 W/m 20,9 km/h (4 Bft) 97,83 %
15.08.2017 15:48 24,3 C 26,1 C 25,0 C 74 % 0 lf 1013,3 hPa 0,0 l/m 0 min 0 min 334 W/m 16,7 km/h (3 Bft) 93,62 %
15.08.2017 15:50 24,4 C 26,7 C 26,1 C 75 % 0 lf 1013,3 hPa 0,0 l/m 2 min 0 min 367 W/m 8,4 km/h (2 Bft) 95,92 %
15.08.2017 15:52 24,4 C 26,7 C 26,7 C 75 % 0 lf 1013,3 hPa 0,0 l/m 2 min 0 min 457 W/m 10,5 km/h (2 Bft) 97,87 %
15.08.2017 15:54 24,4 C 26,7 C 26,7 C 75 % 0 lf 1013,4 hPa 0,0 l/m 0 min 0 min 319 W/m 10,5 km/h (2 Bft) 97,87 %
15.08.2017 15:56 24,6 C 26,7 C 26,1 C 76 % 0 lf 1013,4 hPa 0,0 l/m 0 min 0 min 251 W/m 6,3 km/h (2 Bft) 97,83 %
15.08.2017 15:58 24,6 C 26,1 C 26,1 C 75 % 0 lf 1013,4 hPa 0,0 l/m 0 min 0 min 210 W/m 10,5 km/h (2 Bft) 93,62 %
15.08.2017 16:00 24,6 C 26,1 C 25,0 C 75 % 0 lf 1013,5 hPa 0,0 l/m 0 min 0 min 166 W/m 14,6 km/h (3 Bft) 97,87 %
15.08.2017 16:02 24,6 C 25,6 C 25,0 C 75 % 0 lf 1013,4 hPa 0,0 l/m 0 min 0 min 166 W/m 16,7 km/h (3 Bft) 97,92 %
15.08.2017 16:04 24,6 C 25,6 C 25,0 C 75 % 0 lf 1013,5 hPa 0,0 l/m 0 min 0 min 137 W/m 12,6 km/h (3 Bft) 93,62 %
15.08.2017 16:06 24,7 C 25,6 C 24,4 C 75 % 0 lf 1013,5 hPa 0,0 l/m 0 min 0 min 99 W/m 6,3 km/h (2 Bft) 97,14 %
15.08.2017 16:08 24,7 C 25,0 C 23,9 C 74 % 0 lf 1013,6 hPa 0,0 l/m 0 min 0 min 74 W/m 12,6 km/h (3 Bft) 98,21 %
15.08.2017 16:10 24,7 C 25,0 C 23,9 C 74 % 0 lf 1013,7 hPa 0,0 l/m 0 min 0 min 75 W/m 14,6 km/h (3 Bft) 97,87 %
15.08.2017 16:12 24,6 C 25,0 C 23,3 C 74 % 0 lf 1013,6 hPa 0,0 l/m 0 min 0 min 102 W/m 12,6 km/h (3 Bft) 97,87 %
15.08.2017 16:14 24,6 C 25,0 C 23,3 C 74 % 0 lf 1013,6 hPa 0,0 l/m 0 min 0 min 107 W/m 14,6 km/h (3 Bft) 97,87 %
15.08.2017 16:16 24,6 C 25,0 C 23,3 C 74 % 0 lf 1013,5 hPa 0,0 l/m 0 min 0 min 124 W/m 14,6 km/h (3 Bft) 93,62 %
15.08.2017 16:18 24,6 C 25,0 C 23,9 C 73 % 0 lf 1013,5 hPa 0,0 l/m 0 min 0 min 145 W/m 14,6 km/h (3 Bft) 95,74 %
15.08.2017 16:20 24,6 C 24,4 C 23,9 C 74 % 0 lf 1013,5 hPa 0,0 l/m 0 min 0 min 155 W/m 10,5 km/h (2 Bft) 95,65 %
15.08.2017 16:22 24,6 C 25,0 C 23,9 C 74 % 0 lf 1013,4 hPa 0,0 l/m 0 min 0 min 151 W/m 8,4 km/h (2 Bft) 95,74 %
15.08.2017 16:24 24,6 C 25,0 C 23,9 C 74 % 0 lf 1013,5 hPa 0,0 l/m 0 min 0 min 143 W/m 12,6 km/h (3 Bft) 97,87 %
15.08.2017 16:26 24,6 C 25,0 C 23,9 C 74 % 0 lf 1013,5 hPa 0,0 l/m 0 min 0 min 127 W/m 10,5 km/h (2 Bft) 100,00 %
15.08.2017 16:28 24,5 C 25,0 C 23,9 C 74 % 0 lf 1013,5 hPa 0,0 l/m 0 min 0 min 111 W/m 14,6 km/h (3 Bft) 97,87 %
15.08.2017 16:30 24,5 C 24,4 C 23,3 C 74 % 0 lf 1013,5 hPa 0,0 l/m 0 min 0 min 85 W/m 18,8 km/h (3 Bft) 97,87 %
15.08.2017 16:32 24,4 C 24,4 C 23,3 C 74 % 0 lf 1013,6 hPa 0,0 l/m 0 min 0 min 63 W/m 10,5 km/h (2 Bft) 100,00 %
15.08.2017 16:34 24,4 C 23,9 C 22,8 C 74 % 0 lf 1013,6 hPa 0,0 l/m 0 min 0 min 58 W/m 10,5 km/h (2 Bft) 97,87 %
15.08.2017 16:36 24,4 C 23,9 C 22,8 C 74 % 0 lf 1013,5 hPa 0,0 l/m 0 min 0 min 51 W/m 6,3 km/h (2 Bft) 92,11 %
15.08.2017 16:38 24,4 C 23,9 C 22,8 C 74 % 0 lf 1013,5 hPa 0,0 l/m 0 min 0 min 53 W/m 6,3 km/h (2 Bft) 91,49 %
15.08.2017 16:40 24,4 C 23,9 C 22,8 C 74 % 0 lf 1013,6 hPa 0,0 l/m 0 min 0 min 52 W/m 14,6 km/h (3 Bft) 93,62 %
15.08.2017 16:42 24,3 C 23,9 C 22,8 C 74 % 0 lf 1013,6 hPa 0,0 l/m 0 min 0 min 59 W/m 6,3 km/h (2 Bft) 95,83 %
15.08.2017 16:44 24,3 C 23,9 C 22,8 C 75 % 0 lf 1013,5 hPa 0,0 l/m 0 min 0 min 90 W/m 12,6 km/h (3 Bft) 95,74 %
15.08.2017 16:46 24,3 C 23,9 C 22,8 C 74 % 0 lf 1013,5 hPa 0,0 l/m 0 min 0 min 122 W/m 14,6 km/h (3 Bft) 95,65 %
15.08.2017 16:48 24,3 C 24,4 C 22,8 C 75 % 0 lf 1013,5 hPa 0,0 l/m 0 min 0 min 103 W/m 10,5 km/h (2 Bft) 95,74 %
15.08.2017 16:50 24,2 C 24,4 C 22,8 C 75 % 0 lf 1013,5 hPa 0,0 l/m 0 min 0 min 82 W/m 8,4 km/h (2 Bft) 95,74 %
15.08.2017 16:52 24,2 C 23,9 C 22,8 C 75 % 0 lf 1013,5 hPa 0,0 l/m 0 min 0 min 72 W/m 12,6 km/h (3 Bft) 95,83 %
15.08.2017 16:54 24,2 C 23,9 C 22,8 C 75 % 0 lf 1013,6 hPa 0,0 l/m 0 min 0 min 69 W/m 12,6 km/h (3 Bft) 95,74 %
15.08.2017 16:56 24,2 C 23,9 C 22,8 C 75 % 0 lf 1013,5 hPa 0,0 l/m 0 min 0 min 78 W/m 12,6 km/h (3 Bft) 95,65 %
15.08.2017 16:58 24,2 C 23,9 C 22,8 C 76 % 0 lf 1013,5 hPa 0,0 l/m 0 min 0 min 76 W/m 14,6 km/h (3 Bft) 93,62 %
15.08.2017 17:00 24,1 C 23,9 C 22,8 C 75 % 0 lf 1013,5 hPa 0,0 l/m 0 min 0 min 69 W/m 14,6 km/h (3 Bft) 89,36 %
15.08.2017 17:02 24,1 C 23,9 C 22,8 C 76 % 0 lf 1013,5 hPa 0,0 l/m 0 min 0 min 67 W/m 14,6 km/h (3 Bft) 95,74 %
15.08.2017 17:04 24,1 C 23,9 C 22,2 C 76 % 0 lf 1013,5 hPa 0,0 l/m 0 min 0 min 66 W/m 20,9 km/h (4 Bft) 95,74 %
15.08.2017 17:06 24,1 C 23,9 C 22,2 C 76 % 0 lf 1013,4 hPa 0,0 l/m 0 min 0 min 69 W/m 14,6 km/h (3 Bft) 95,74 %
15.08.2017 17:08 24,0 C 23,9 C 22,2 C 76 % 0 lf 1013,4 hPa 0,0 l/m 0 min 0 min 74 W/m 16,7 km/h (3 Bft) 93,48 %
15.08.2017 17:10 24,0 C 23,9 C 22,2 C 76 % 0 lf 1013,4 hPa 0,0 l/m 0 min 0 min 76 W/m 8,4 km/h (2 Bft) 95,74 %
15.08.2017 17:12 23,9 C 23,9 C 22,2 C 76 % 0 lf 1013,3 hPa 0,0 l/m 0 min 0 min 71 W/m 10,5 km/h (2 Bft) 89,36 %
15.08.2017 17:14 23,9 C 23,3 C 22,2 C 76 % 0 lf 1013,4 hPa 0,0 l/m 0 min 0 min 60 W/m 12,6 km/h (3 Bft) 93,62 %
15.08.2017 17:16 23,9 C 23,3 C 22,2 C 77 % 0 lf 1013,4 hPa 0,0 l/m 0 min 0 min 50 W/m 8,4 km/h (2 Bft) 91,49 %
15.08.2017 17:18 23,8 C 23,3 C 22,2 C 77 % 0 lf 1013,4 hPa 0,0 l/m 0 min 0 min 45 W/m 16,7 km/h (3 Bft) 91,49 %
15.08.2017 17:20 23,8 C 23,3 C 21,7 C 76 % 4 lf 1013,4 hPa 0,0 l/m 0 min 2 min 44 W/m 16,7 km/h (3 Bft) 93,48 %
15.08.2017 17:22 23,8 C 22,8 C 21,7 C 77 % 0 lf 1013,4 hPa 0,0 l/m 0 min 2 min 45 W/m 16,7 km/h (3 Bft) 93,62 %
15.08.2017 17:24 23,7 C 22,8 C 21,1 C 77 % 0 lf 1013,4 hPa 0,0 l/m 0 min 2 min 43 W/m 18,8 km/h (3 Bft) 93,62 %
15.08.2017 17:26 23,7 C 22,8 C 21,1 C 77 % 0 lf 1013,5 hPa 0,0 l/m 0 min 2 min 52 W/m 10,5 km/h (2 Bft) 93,62 %
15.08.2017 17:28 23,7 C 22,2 C 21,1 C 78 % 0 lf 1013,5 hPa 0,0 l/m 0 min 2 min 54 W/m 23,0 km/h (4 Bft) 93,62 %
15.08.2017 17:30 23,6 C 22,2 C 20,6 C 77 % 0 lf 1013,5 hPa 0,0 l/m 0 min 0 min 55 W/m 16,7 km/h (3 Bft) 91,49 %
15.08.2017 17:32 23,6 C 22,2 C 21,1 C 78 % 0 lf 1013,5 hPa 0,0 l/m 0 min 2 min 56 W/m 23,0 km/h (4 Bft) 95,74 %
15.08.2017 17:34 23,5 C 22,8 C 21,1 C 78 % 1 lf 1013,5 hPa 0,0 l/m 0 min 2 min 51 W/m 23,0 km/h (4 Bft) 97,87 %
15.08.2017 17:36 23,5 C 22,8 C 20,6 C 78 % 0 lf 1013,7 hPa 0,0 l/m 0 min 2 min 61 W/m 18,8 km/h (3 Bft) 97,92 %
15.08.2017 17:38 23,4 C 22,8 C 21,1 C 78 % 0 lf 1013,7 hPa 0,0 l/m 0 min 0 min 85 W/m 18,8 km/h (3 Bft) 95,74 %
15.08.2017 17:40 23,4 C 22,8 C 21,1 C 78 % 0 lf 1013,7 hPa 0,0 l/m 0 min 0 min 81 W/m 20,9 km/h (4 Bft) 97,87 %
15.08.2017 17:42 23,4 C 22,8 C 21,1 C 79 % 0 lf 1013,7 hPa 0,0 l/m 0 min 0 min 81 W/m 16,7 km/h (3 Bft) 95,74 %
15.08.2017 17:44 23,4 C 23,3 C 21,1 C 79 % 0 lf 1013,9 hPa 0,0 l/m 0 min 0 min 93 W/m 25,1 km/h (4 Bft) 100,00 %
15.08.2017 17:46 23,4 C 23,3 C 21,7 C 79 % 0 lf 1013,8 hPa 0,0 l/m 0 min 0 min 105 W/m 12,6 km/h (3 Bft) 100,00 %
15.08.2017 17:48 23,3 C 23,3 C 21,7 C 79 % 0 lf 1013,7 hPa 0,0 l/m 0 min 0 min 107 W/m 23,0 km/h (4 Bft) 97,87 %
15.08.2017 17:50 23,3 C 23,3 C 22,2 C 79 % 0 lf 1013,7 hPa 0,0 l/m 0 min 0 min 104 W/m 23,0 km/h (4 Bft) 95,74 %
15.08.2017 17:52 23,3 C 23,3 C 22,2 C 79 % 0 lf 1013,8 hPa 0,0 l/m 0 min 0 min 99 W/m 18,8 km/h (3 Bft) 97,87 %
15.08.2017 17:54 23,3 C 23,3 C 22,2 C 79 % 0 lf 1013,8 hPa 0,0 l/m 0 min 0 min 98 W/m 14,6 km/h (3 Bft) 100,00 %
15.08.2017 17:56 23,3 C 23,3 C 22,2 C 79 % 0 lf 1013,9 hPa 0,0 l/m 0 min 0 min 98 W/m 14,6 km/h (3 Bft) 100,00 %
15.08.2017 17:58 23,3 C 23,3 C 22,2 C 79 % 0 lf 1013,9 hPa 0,0 l/m 0 min 0 min 97 W/m 12,6 km/h (3 Bft) 100,00 %
15.08.2017 18:00 23,3 C 23,3 C 22,2 C 79 % 0 lf 1013,8 hPa 0,0 l/m 0 min 0 min 95 W/m 10,5 km/h (2 Bft) 100,00 %
15.08.2017 18:02 23,3 C 23,3 C 22,2 C 80 % 0 lf 1013,8 hPa 0,0 l/m 0 min 0 min 98 W/m 12,6 km/h (3 Bft) 100,00 %
15.08.2017 18:04 23,3 C 23,3 C 22,2 C 80 % 0 lf 1013,8 hPa 0,0 l/m 0 min 0 min 103 W/m 14,6 km/h (3 Bft) 100,00 %
15.08.2017 18:06 23,3 C 23,3 C 22,2 C 80 % 0 lf 1013,6 hPa 0,0 l/m 0 min 0 min 105 W/m 12,6 km/h (3 Bft) 100,00 %
15.08.2017 18:10 23,3 C 23,3 C 22,2 C 80 % 0 lf 1013,8 hPa 0,0 l/m 0 min 0 min 105 W/m 12,6 km/h (3 Bft) 98,92 %
15.08.2017 18:12 23,3 C 23,3 C 22,2 C 80 % 0 lf 1013,7 hPa 0,0 l/m 0 min 0 min 104 W/m 12,6 km/h (3 Bft) 97,62 %
15.08.2017 18:14 23,3 C 23,3 C 22,2 C 80 % 0 lf 1013,7 hPa 0,0 l/m 0 min 0 min 105 W/m 12,6 km/h (3 Bft) 100,00 %
15.08.2017 18:16 23,3 C 23,3 C 22,2 C 80 % 0 lf 1013,8 hPa 0,0 l/m 0 min 0 min 111 W/m 12,6 km/h (3 Bft) 100,00 %
15.08.2017 18:18 23,3 C 23,3 C 22,2 C 80 % 0 lf 1013,8 hPa 0,0 l/m 0 min 0 min 117 W/m 20,9 km/h (4 Bft) 97,87 %
15.08.2017 18:20 23,3 C 23,3 C 22,2 C 80 % 0 lf 1013,8 hPa 0,0 l/m 0 min 0 min 125 W/m 14,6 km/h (3 Bft) 95,65 %
15.08.2017 18:22 23,3 C 23,3 C 22,2 C 80 % 0 lf 1013,7 hPa 0,0 l/m 0 min 0 min 133 W/m 16,7 km/h (3 Bft) 93,62 %
15.08.2017 18:24 23,2 C 23,3 C 22,2 C 80 % 0 lf 1013,7 hPa 0,0 l/m 0 min 0 min 143 W/m 14,6 km/h (3 Bft) 97,87 %
15.08.2017 18:26 23,2 C 23,3 C 22,2 C 80 % 0 lf 1013,6 hPa 0,0 l/m 0 min 0 min 156 W/m 16,7 km/h (3 Bft) 97,87 %
15.08.2017 18:28 23,3 C 23,9 C 22,2 C 80 % 0 lf 1013,6 hPa 0,0 l/m 2 min 0 min 237 W/m 10,5 km/h (2 Bft) 97,87 %
15.08.2017 18:30 23,2 C 23,9 C 22,8 C 81 % 0 lf 1013,6 hPa 0,0 l/m 2 min 0 min 202 W/m 6,3 km/h (2 Bft) 97,83 %
15.08.2017 18:32 23,3 C 23,9 C 22,8 C 81 % 0 lf 1013,5 hPa 0,0 l/m 2 min 0 min 235 W/m 6,3 km/h (2 Bft) 97,87 %
15.08.2017 18:34 23,3 C 24,4 C 23,3 C 81 % 0 lf 1013,5 hPa 0,0 l/m 2 min 0 min 262 W/m 8,4 km/h (2 Bft) 95,74 %
15.08.2017 18:36 23,3 C 24,4 C 23,3 C 81 % 0 lf 1013,5 hPa 0,0 l/m 2 min 0 min 216 W/m 14,6 km/h (3 Bft) 98,00 %
15.08.2017 18:38 23,3 C 23,9 C 23,3 C 81 % 0 lf 1013,5 hPa 0,0 l/m 2 min 0 min 205 W/m 14,6 km/h (3 Bft) 93,62 %
15.08.2017 18:40 23,4 C 24,4 C 23,3 C 81 % 0 lf 1013,5 hPa 0,0 l/m 2 min 0 min 221 W/m 14,6 km/h (3 Bft) 95,74 %
15.08.2017 18:42 23,4 C 24,4 C 23,3 C 81 % 0 lf 1013,5 hPa 0,0 l/m 2 min 0 min 278 W/m 16,7 km/h (3 Bft) 95,65 %
15.08.2017 18:44 23,4 C 24,4 C 23,3 C 81 % 0 lf 1013,5 hPa 0,0 l/m 2 min 0 min 229 W/m 14,6 km/h (3 Bft) 97,87 %
15.08.2017 18:46 23,4 C 24,4 C 23,9 C 81 % 0 lf 1013,5 hPa 0,0 l/m 2 min 0 min 276 W/m 12,6 km/h (3 Bft) 97,87 %
15.08.2017 18:48 23,5 C 25,0 C 23,9 C 81 % 0 lf 1013,5 hPa 0,0 l/m 2 min 0 min 243 W/m 16,7 km/h (3 Bft) 97,87 %
15.08.2017 18:50 23,6 C 25,0 C 23,9 C 81 % 0 lf 1013,5 hPa 0,0 l/m 2 min 0 min 300 W/m 16,7 km/h (3 Bft) 95,74 %
15.08.2017 18:52 23,6 C 25,0 C 23,9 C 81 % 0 lf 1013,5 hPa 0,0 l/m 2 min 0 min 238 W/m 20,9 km/h (4 Bft) 95,74 %
15.08.2017 18:54 23,7 C 24,4 C 23,9 C 81 % 0 lf 1013,5 hPa 0,0 l/m 2 min 0 min 211 W/m 18,8 km/h (3 Bft) 97,83 %
15.08.2017 18:56 23,7 C 24,4 C 23,3 C 81 % 0 lf 1013,5 hPa 0,0 l/m 2 min 0 min 160 W/m 18,8 km/h (3 Bft) 95,74 %
15.08.2017 18:58 23,7 C 24,4 C 23,3 C 80 % 0 lf 1013,5 hPa 0,0 l/m 2 min 0 min 155 W/m 23,0 km/h (4 Bft) 97,87 %
15.08.2017 19:00 23,7 C 23,9 C 22,8 C 80 % 0 lf 1013,5 hPa 0,0 l/m 0 min 0 min 112 W/m 16,7 km/h (3 Bft) 97,87 %
15.08.2017 19:02 23,7 C 23,9 C 22,8 C 80 % 0 lf 1013,6 hPa 0,0 l/m 0 min 0 min 97 W/m 29,3 km/h (5 Bft) 97,92 %
15.08.2017 19:04 23,7 C 23,9 C 22,8 C 80 % 0 lf 1013,5 hPa 0,0 l/m 0 min 0 min 72 W/m 27,2 km/h (4 Bft) 97,87 %
15.08.2017 19:06 23,7 C 23,3 C 22,2 C 80 % 0 lf 1013,6 hPa 0,0 l/m 0 min 0 min 69 W/m 27,2 km/h (4 Bft) 100,00 %
15.08.2017 19:08 23,7 C 23,3 C 22,2 C 80 % 0 lf 1013,6 hPa 0,0 l/m 0 min 0 min 68 W/m 27,2 km/h (4 Bft) 100,00 %
15.08.2017 19:10 23,6 C 23,3 C 22,2 C 80 % 0 lf 1013,6 hPa 0,0 l/m 0 min 0 min 73 W/m 25,1 km/h (4 Bft) 97,87 %
15.08.2017 19:12 23,6 C 23,3 C 22,2 C 80 % 0 lf 1013,7 hPa 0,0 l/m 0 min 0 min 79 W/m 29,3 km/h (5 Bft) 97,87 %
15.08.2017 19:14 23,5 C 23,3 C 22,2 C 80 % 0 lf 1013,8 hPa 0,0 l/m 0 min 0 min 82 W/m 41,8 km/h (6 Bft) 97,87 %
15.08.2017 19:16 23,4 C 23,3 C 22,2 C 80 % 0 lf 1013,9 hPa 0,0 l/m 0 min 0 min 95 W/m 27,2 km/h (4 Bft) 95,65 %
15.08.2017 19:18 23,4 C 23,3 C 22,2 C 80 % 0 lf 1013,9 hPa 0,0 l/m 0 min 0 min 82 W/m 23,0 km/h (4 Bft) 100,00 %
15.08.2017 19:20 23,4 C 23,3 C 22,2 C 80 % 0 lf 1014,0 hPa 0,0 l/m 0 min 0 min 64 W/m 25,1 km/h (4 Bft) 97,87 %
15.08.2017 19:22 23,4 C 23,3 C 22,2 C 80 % 0 lf 1014,0 hPa 0,0 l/m 0 min 0 min 53 W/m 18,8 km/h (3 Bft) 97,87 %
15.08.2017 19:24 23,4 C 23,3 C 22,2 C 81 % 0 lf 1014,0 hPa 0,0 l/m 0 min 0 min 46 W/m 12,6 km/h (3 Bft) 97,87 %
15.08.2017 19:26 23,4 C 23,3 C 21,7 C 81 % 0 lf 1014,0 hPa 0,0 l/m 0 min 0 min 40 W/m 23,0 km/h (4 Bft) 97,87 %
15.08.2017 19:28 23,3 C 22,8 C 21,7 C 81 % 0 lf 1014,0 hPa 0,0 l/m 0 min 0 min 44 W/m 25,1 km/h (4 Bft) 95,65 %
15.08.2017 19:30 23,3 C 22,8 C 21,7 C 81 % 0 lf 1014,1 hPa 0,0 l/m 0 min 0 min 45 W/m 18,8 km/h (3 Bft) 93,62 %
15.08.2017 19:32 23,3 C 22,8 C 21,7 C 81 % 0 lf 1014,1 hPa 0,0 l/m 0 min 0 min 46 W/m 16,7 km/h (3 Bft) 97,92 %
15.08.2017 19:34 23,2 C 22,8 C 21,7 C 82 % 0 lf 1014,1 hPa 0,0 l/m 0 min 0 min 47 W/m 18,8 km/h (3 Bft) 97,87 %
15.08.2017 19:36 23,2 C 22,8 C 21,7 C 82 % 0 lf 1014,2 hPa 0,0 l/m 0 min 0 min 48 W/m 14,6 km/h (3 Bft) 98,00 %
15.08.2017 19:38 23,2 C 22,8 C 21,7 C 82 % 0 lf 1014,1 hPa 0,0 l/m 0 min 0 min 49 W/m 8,4 km/h (2 Bft) 95,74 %
15.08.2017 19:40 23,2 C 22,8 C 21,7 C 82 % 0 lf 1014,1 hPa 0,0 l/m 0 min 0 min 47 W/m 18,8 km/h (3 Bft) 94,29 %
15.08.2017 19:42 23,1 C 22,8 C 21,7 C 81 % 0 lf 1014,1 hPa 0,0 l/m 0 min 0 min 45 W/m 14,6 km/h (3 Bft) 95,74 %
15.08.2017 19:44 23,1 C 22,8 C 21,7 C 81 % 0 lf 1014,1 hPa 0,0 l/m 0 min 0 min 42 W/m 23,0 km/h (4 Bft) 95,65 %
15.08.2017 19:46 23,1 C 22,8 C 21,7 C 81 % 0 lf 1014,1 hPa 0,0 l/m 0 min 0 min 43 W/m 23,0 km/h (4 Bft) 93,22 %
15.08.2017 19:48 23,1 C 22,8 C 21,7 C 81 % 0 lf 1014,2 hPa 0,0 l/m 0 min 0 min 44 W/m 16,7 km/h (3 Bft) 93,62 %
15.08.2017 19:50 23,0 C 22,8 C 21,1 C 82 % 0 lf 1014,1 hPa 0,0 l/m 0 min 0 min 43 W/m 18,8 km/h (3 Bft) 97,87 %
15.08.2017 19:52 23,0 C 22,8 C 21,1 C 81 % 0 lf 1014,1 hPa 0,0 l/m 0 min 0 min 40 W/m 20,9 km/h (4 Bft) 97,14 %
15.08.2017 19:54 23,0 C 22,8 C 21,1 C 82 % 0 lf 1014,1 hPa 0,0 l/m 0 min 0 min 37 W/m 18,8 km/h (3 Bft) 96,55 %
15.08.2017 19:56 22,9 C 22,8 C 21,1 C 82 % 0 lf 1014,3 hPa 0,0 l/m 0 min 0 min 31 W/m 27,2 km/h (4 Bft) 94,29 %
15.08.2017 19:58 22,9 C 22,8 C 21,1 C 82 % 0 lf 1014,3 hPa 0,0 l/m 0 min 0 min 30 W/m 20,9 km/h (4 Bft) 95,74 %
15.08.2017 20:00 22,9 C 22,2 C 21,1 C 82 % 0 lf 1014,2 hPa 0,0 l/m 0 min 0 min 33 W/m 18,8 km/h (3 Bft) 94,92 %
15.08.2017 20:02 22,8 C 22,2 C 21,1 C 82 % 0 lf 1014,2 hPa 0,0 l/m 0 min 0 min 33 W/m 25,1 km/h (4 Bft) 94,29 %
15.08.2017 20:04 22,8 C 22,2 C 21,1 C 82 % 0 lf 1014,2 hPa 0,0 l/m 0 min 0 min 31 W/m 20,9 km/h (4 Bft) 94,83 %
15.08.2017 20:06 22,8 C 22,2 C 21,1 C 82 % 0 lf 1014,3 hPa 0,0 l/m 0 min 0 min 29 W/m 16,7 km/h (3 Bft) 93,62 %
15.08.2017 20:08 22,8 C 22,2 C 21,1 C 82 % 0 lf 1014,3 hPa 0,0 l/m 0 min 0 min 28 W/m 14,6 km/h (3 Bft) 95,74 %
15.08.2017 20:10 22,7 C 22,2 C 21,1 C 82 % 0 lf 1014,3 hPa 0,0 l/m 0 min 0 min 26 W/m 16,7 km/h (3 Bft) 95,74 %
15.08.2017 20:12 22,7 C 22,2 C 20,6 C 82 % 0 lf 1014,3 hPa 0,0 l/m 0 min 0 min 24 W/m 16,7 km/h (3 Bft) 91,43 %
15.08.2017 20:14 22,7 C 22,2 C 20,6 C 83 % 0 lf 1014,3 hPa 0,0 l/m 0 min 0 min 22 W/m 23,0 km/h (4 Bft) 94,92 %
15.08.2017 20:16 22,7 C 22,2 C 20,6 C 83 % 0 lf 1014,3 hPa 0,0 l/m 0 min 0 min 20 W/m 14,6 km/h (3 Bft) 97,14 %
15.08.2017 20:18 22,6 C 22,2 C 20,6 C 83 % 0 lf 1014,3 hPa 0,0 l/m 0 min 0 min 18 W/m 16,7 km/h (3 Bft) 95,65 %
15.08.2017 20:20 22,6 C 22,2 C 20,6 C 83 % 0 lf 1014,3 hPa 0,0 l/m 0 min 0 min 17 W/m 12,6 km/h (3 Bft) 93,22 %
15.08.2017 20:22 22,6 C 22,2 C 20,6 C 83 % 0 lf 1014,3 hPa 0,0 l/m 0 min 0 min 16 W/m 12,6 km/h (3 Bft) 94,29 %
15.08.2017 20:24 22,6 C 21,7 C 20,6 C 83 % 0 lf 1014,4 hPa 0,0 l/m 0 min 0 min 14 W/m 20,9 km/h (4 Bft) 94,92 %
15.08.2017 20:26 22,5 C 21,7 C 20,6 C 83 % 0 lf 1014,4 hPa 0,0 l/m 0 min 0 min 14 W/m 18,8 km/h (3 Bft) 94,29 %
15.08.2017 20:28 22,4 C 21,7 C 20,6 C 83 % 0 lf 1014,4 hPa 0,0 l/m 0 min 0 min 13 W/m 18,8 km/h (3 Bft) 97,87 %
15.08.2017 20:30 22,4 C 21,7 C 20,6 C 84 % 0 lf 1014,5 hPa 0,0 l/m 0 min 0 min 12 W/m 12,6 km/h (3 Bft) 96,55 %
15.08.2017 20:32 22,4 C 21,7 C 20,6 C 84 % 0 lf 1014,5 hPa 0,0 l/m 0 min 0 min 11 W/m 14,6 km/h (3 Bft) 94,29 %
15.08.2017 20:34 22,4 C 21,7 C 20,6 C 84 % 0 lf 1014,5 hPa 0,0 l/m 0 min 0 min 11 W/m 12,6 km/h (3 Bft) 95,74 %
15.08.2017 20:36 22,3 C 21,7 C 20,0 C 84 % 0 lf 1014,5 hPa 0,0 l/m 0 min 0 min 11 W/m 12,6 km/h (3 Bft) 94,44 %
15.08.2017 20:38 22,3 C 21,7 C 20,0 C 84 % 0 lf 1014,6 hPa 0,0 l/m 0 min 0 min 11 W/m 10,5 km/h (2 Bft) 91,30 %
15.08.2017 20:40 22,3 C 21,7 C 20,0 C 84 % 0 lf 1014,6 hPa 0,0 l/m 0 min 0 min 10 W/m 14,6 km/h (3 Bft) 95,74 %
15.08.2017 20:42 22,3 C 21,7 C 20,0 C 84 % 0 lf 1014,6 hPa 0,0 l/m 0 min 0 min 9 W/m 14,6 km/h (3 Bft) 95,74 %
15.08.2017 20:44 22,3 C 21,7 C 20,0 C 84 % 0 lf 1014,6 hPa 0,0 l/m 0 min 0 min 10 W/m 10,5 km/h (2 Bft) 93,62 %
15.08.2017 20:46 22,2 C 21,1 C 20,0 C 84 % 0 lf 1014,6 hPa 0,0 l/m 0 min 0 min 9 W/m 8,4 km/h (2 Bft) 97,87 %
15.08.2017 20:48 22,2 C 21,1 C 20,0 C 84 % 0 lf 1014,6 hPa 0,0 l/m 0 min 0 min 8 W/m 14,6 km/h (3 Bft) 95,74 %
15.08.2017 20:50 22,2 C 21,1 C 20,0 C 84 % 0 lf 1014,7 hPa 0,0 l/m 0 min 0 min 7 W/m 14,6 km/h (3 Bft) 97,83 %
15.08.2017 20:52 22,1 C 21,1 C 20,0 C 85 % 0 lf 1014,7 hPa 0,0 l/m 0 min 0 min 10 W/m 6,3 km/h (2 Bft) 100,00 %
15.08.2017 20:54 22,1 C 21,1 C 20,0 C 85 % 0 lf 1014,7 hPa 0,0 l/m 0 min 0 min 12 W/m 6,3 km/h (2 Bft) 95,74 %
15.08.2017 20:56 22,1 C 21,1 C 19,4 C 85 % 0 lf 1014,8 hPa 0,0 l/m 0 min 0 min 12 W/m 8,4 km/h (2 Bft) 97,87 %
15.08.2017 20:58 22,1 C 21,1 C 19,4 C 85 % 0 lf 1014,9 hPa 0,0 l/m 0 min 0 min 12 W/m 6,3 km/h (2 Bft) 97,87 %
15.08.2017 21:00 22,1 C 21,1 C 19,4 C 85 % 0 lf 1014,9 hPa 0,0 l/m 0 min 0 min 12 W/m 6,3 km/h (2 Bft) 97,87 %
15.08.2017 21:02 22,0 C 21,1 C 19,4 C 85 % 0 lf 1014,9 hPa 0,0 l/m 0 min 0 min 11 W/m 6,3 km/h (2 Bft) 97,83 %
15.08.2017 21:04 22,0 C 21,1 C 19,4 C 85 % 0 lf 1015,0 hPa 0,0 l/m 0 min 0 min 8 W/m 4,2 km/h (1 Bft) 97,87 %
15.08.2017 21:06 21,9 C 21,1 C 19,4 C 85 % 0 lf 1015,0 hPa 0,0 l/m 0 min 0 min 6 W/m 8,4 km/h (2 Bft) 95,74 %
15.08.2017 21:08 21,9 C 21,1 C 19,4 C 85 % 0 lf 1015,0 hPa 0,0 l/m 0 min 0 min 2 W/m 4,2 km/h (1 Bft) 100,00 %
15.08.2017 21:10 21,9 C 20,6 C 19,4 C 85 % 0 lf 1015,1 hPa 0,0 l/m 0 min 0 min 0 W/m 6,3 km/h (2 Bft) 95,74 %
15.08.2017 21:12 21,9 C 20,6 C 19,4 C 86 % 0 lf 1015,1 hPa 0,0 l/m 0 min 0 min 0 W/m 6,3 km/h (2 Bft) 91,67 %
15.08.2017 21:14 21,8 C 20,6 C 19,4 C 85 % 0 lf 1015,1 hPa 0,0 l/m 0 min 0 min 0 W/m 8,4 km/h (2 Bft) 97,83 %
15.08.2017 21:16 21,8 C 20,6 C 18,9 C 86 % 0 lf 1015,2 hPa 0,0 l/m 0 min 0 min 0 W/m 8,4 km/h (2 Bft) 97,87 %
15.08.2017 21:18 21,8 C 20,6 C 18,9 C 86 % 0 lf 1015,2 hPa 0,0 l/m 0 min 0 min 0 W/m 8,4 km/h (2 Bft) 93,62 %
15.08.2017 21:20 21,8 C 20,6 C 18,9 C 86 % 0 lf 1015,4 hPa 0,0 l/m 0 min 0 min 0 W/m 6,3 km/h (2 Bft) 95,74 %
15.08.2017 21:22 21,7 C 20,6 C 18,9 C 86 % 0 lf 1015,5 hPa 0,0 l/m 0 min 0 min 0 W/m 10,5 km/h (2 Bft) 95,74 %
15.08.2017 21:24 21,7 C 20,6 C 18,9 C 86 % 0 lf 1015,5 hPa 0,0 l/m 0 min 0 min 0 W/m 6,3 km/h (2 Bft) 95,74 %
15.08.2017 21:26 21,7 C 20,6 C 18,9 C 86 % 0 lf 1015,5 hPa 0,0 l/m 0 min 0 min 0 W/m 8,4 km/h (2 Bft) 95,65 %
15.08.2017 21:28 21,7 C 20,6 C 18,9 C 86 % 0 lf 1015,6 hPa 0,0 l/m 0 min 0 min 0 W/m 8,4 km/h (2 Bft) 91,49 %
15.08.2017 21:30 21,6 C 20,6 C 18,9 C 86 % 0 lf 1015,6 hPa 0,0 l/m 0 min 0 min 0 W/m 6,3 km/h (2 Bft) 95,74 %
15.08.2017 21:32 21,6 C 20,6 C 18,9 C 87 % 0 lf 1015,7 hPa 0,0 l/m 0 min 0 min 0 W/m 6,3 km/h (2 Bft) 93,75 %
15.08.2017 21:34 21,6 C 20,6 C 18,9 C 87 % 0 lf 1015,7 hPa 0,0 l/m 0 min 0 min 0 W/m 12,6 km/h (3 Bft) 95,74 %
15.08.2017 21:36 21,6 C 20,6 C 18,9 C 87 % 0 lf 1015,7 hPa 0,0 l/m 0 min 0 min 0 W/m 6,3 km/h (2 Bft) 95,65 %
15.08.2017 21:38 21,5 C 20,6 C 18,9 C 87 % 0 lf 1015,7 hPa 0,0 l/m 0 min 0 min 0 W/m 8,4 km/h (2 Bft) 95,74 %
15.08.2017 21:40 21,5 C 20,6 C 18,9 C 87 % 0 lf 1015,8 hPa 0,0 l/m 0 min 0 min 0 W/m 8,4 km/h (2 Bft) 95,74 %
15.08.2017 21:42 21,4 C 20,6 C 18,9 C 87 % 0 lf 1015,8 hPa 0,0 l/m 0 min 0 min 0 W/m 10,5 km/h (2 Bft) 95,83 %
15.08.2017 21:44 21,4 C 20,6 C 18,9 C 87 % 0 lf 1015,7 hPa 0,0 l/m 0 min 0 min 0 W/m 6,3 km/h (2 Bft) 97,87 %
15.08.2017 21:46 21,4 C 20,6 C 18,9 C 87 % 0 lf 1015,7 hPa 0,0 l/m 0 min 0 min 0 W/m 8,4 km/h (2 Bft) 97,87 %
15.08.2017 21:48 21,4 C 20,6 C 18,9 C 87 % 0 lf 1015,8 hPa 0,0 l/m 0 min 0 min 0 W/m 14,6 km/h (3 Bft) 97,83 %
15.08.2017 21:50 21,3 C 20,6 C 18,9 C 87 % 0 lf 1015,8 hPa 0,0 l/m 0 min 0 min 0 W/m 10,5 km/h (2 Bft) 93,62 %
15.08.2017 21:52 21,3 C 20,6 C 18,9 C 87 % 0 lf 1015,9 hPa 0,0 l/m 0 min 0 min 0 W/m 10,5 km/h (2 Bft) 100,00 %
15.08.2017 21:54 21,3 C 20,6 C 18,9 C 88 % 0 lf 1015,8 hPa 0,0 l/m 0 min 0 min 0 W/m 10,5 km/h (2 Bft) 95,74 %
15.08.2017 21:56 21,2 C 20,6 C 18,9 C 88 % 0 lf 1015,8 hPa 0,0 l/m 0 min 0 min 0 W/m 14,6 km/h (3 Bft) 97,87 %
15.08.2017 21:58 21,2 C 20,6 C 18,9 C 88 % 0 lf 1015,9 hPa 0,0 l/m 0 min 0 min 0 W/m 12,6 km/h (3 Bft) 100,00 %
15.08.2017 22:00 21,2 C 20,6 C 18,9 C 88 % 0 lf 1015,9 hPa 0,0 l/m 0 min 0 min 0 W/m 14,6 km/h (3 Bft) 100,00 %
15.08.2017 22:02 21,2 C 20,6 C 18,9 C 88 % 0 lf 1015,9 hPa 0,0 l/m 0 min 0 min 0 W/m 12,6 km/h (3 Bft) 100,00 %
15.08.2017 22:04 21,2 C 20,6 C 18,9 C 88 % 0 lf 1016,0 hPa 0,0 l/m 0 min 0 min 0 W/m 10,5 km/h (2 Bft) 100,00 %
15.08.2017 22:06 21,1 C 20,6 C 18,9 C 88 % 0 lf 1016,1 hPa 0,0 l/m 0 min 0 min 0 W/m 10,5 km/h (2 Bft) 100,00 %
15.08.2017 22:08 21,1 C 20,6 C 18,9 C 88 % 0 lf 1016,2 hPa 0,0 l/m 0 min 0 min 0 W/m 6,3 km/h (2 Bft) 100,00 %
15.08.2017 22:10 21,1 C 20,6 C 18,9 C 88 % 0 lf 1016,2 hPa 0,0 l/m 0 min 0 min 0 W/m 16,7 km/h (3 Bft) 100,00 %
15.08.2017 22:12 21,1 C 20,6 C 18,9 C 88 % 0 lf 1016,2 hPa 0,0 l/m 0 min 0 min 0 W/m 18,8 km/h (3 Bft) 100,00 %
15.08.2017 22:14 21,0 C 20,6 C 18,9 C 88 % 0 lf 1016,2 hPa 0,0 l/m 0 min 0 min 0 W/m 16,7 km/h (3 Bft) 97,87 %
15.08.2017 22:16 21,0 C 20,6 C 18,9 C 88 % 0 lf 1016,2 hPa 0,0 l/m 0 min 0 min 0 W/m 23,0 km/h (4 Bft) 95,74 %
15.08.2017 22:18 21,0 C 20,0 C 18,9 C 89 % 0 lf 1016,2 hPa 0,0 l/m 0 min 0 min 0 W/m 20,9 km/h (4 Bft) 97,87 %
15.08.2017 22:20 20,9 C 20,0 C 18,9 C 89 % 0 lf 1016,2 hPa 0,0 l/m 0 min 0 min 0 W/m 20,9 km/h (4 Bft) 97,87 %
15.08.2017 22:22 20,9 C 20,0 C 18,9 C 89 % 0 lf 1016,3 hPa 0,0 l/m 0 min 0 min 0 W/m 18,8 km/h (3 Bft) 97,87 %
15.08.2017 22:24 20,9 C 20,0 C 18,9 C 89 % 0 lf 1016,3 hPa 0,0 l/m 0 min 0 min 0 W/m 18,8 km/h (3 Bft) 100,00 %
15.08.2017 22:26 20,8 C 20,0 C 18,9 C 89 % 0 lf 1016,2 hPa 0,0 l/m 0 min 0 min 0 W/m 16,7 km/h (3 Bft) 100,00 %
15.08.2017 22:28 20,8 C 20,0 C 18,3 C 89 % 0 lf 1016,3 hPa 0,0 l/m 0 min 0 min 0 W/m 12,6 km/h (3 Bft) 100,00 %
15.08.2017 22:30 20,8 C 19,4 C 18,3 C 89 % 0 lf 1016,3 hPa 0,0 l/m 0 min 0 min 0 W/m 12,6 km/h (3 Bft) 100,00 %
15.08.2017 22:32 20,8 C 19,4 C 18,3 C 89 % 0 lf 1016,4 hPa 0,0 l/m 0 min 0 min 0 W/m 8,4 km/h (2 Bft) 100,00 %
15.08.2017 22:34 20,7 C 19,4 C 18,3 C 89 % 0 lf 1016,4 hPa 0,0 l/m 0 min 0 min 0 W/m 10,5 km/h (2 Bft) 97,83 %
15.08.2017 22:36 20,7 C 19,4 C 18,3 C 88 % 0 lf 1016,5 hPa 0,0 l/m 0 min 0 min 0 W/m 8,4 km/h (2 Bft) 100,00 %
15.08.2017 22:38 20,6 C 19,4 C 18,3 C 89 % 0 lf 1016,5 hPa 0,0 l/m 0 min 0 min 0 W/m 12,6 km/h (3 Bft) 97,83 %
15.08.2017 22:40 20,6 C 19,4 C 18,3 C 89 % 0 lf 1016,5 hPa 0,0 l/m 0 min 0 min 0 W/m 14,6 km/h (3 Bft) 100,00 %
15.08.2017 22:42 20,6 C 19,4 C 18,3 C 89 % 0 lf 1016,6 hPa 0,0 l/m 0 min 0 min 0 W/m 10,5 km/h (2 Bft) 100,00 %
15.08.2017 22:44 20,5 C 19,4 C 18,3 C 89 % 0 lf 1016,6 hPa 0,0 l/m 0 min 0 min 0 W/m 12,6 km/h (3 Bft) 95,74 %
15.08.2017 22:46 20,4 C 19,4 C 18,3 C 89 % 0 lf 1016,5 hPa 0,0 l/m 0 min 0 min 0 W/m 14,6 km/h (3 Bft) 100,00 %
15.08.2017 22:48 20,4 C 19,4 C 18,3 C 89 % 0 lf 1016,6 hPa 0,0 l/m 0 min 0 min 0 W/m 10,5 km/h (2 Bft) 100,00 %
15.08.2017 22:50 20,4 C 19,4 C 18,3 C 89 % 0 lf 1016,6 hPa 0,0 l/m 0 min 0 min 0 W/m 10,5 km/h (2 Bft) 97,87 %
15.08.2017 22:52 20,3 C 19,4 C 18,3 C 89 % 0 lf 1016,6 hPa 0,0 l/m 0 min 0 min 0 W/m 12,6 km/h (3 Bft) 97,87 %
15.08.2017 22:54 20,3 C 19,4 C 18,3 C 89 % 0 lf 1016,7 hPa 0,0 l/m 0 min 0 min 0 W/m 8,4 km/h (2 Bft) 95,74 %
15.08.2017 22:56 20,3 C 19,4 C 18,3 C 89 % 0 lf 1016,7 hPa 0,0 l/m 0 min 0 min 0 W/m 8,4 km/h (2 Bft) 95,74 %
15.08.2017 22:58 20,2 C 19,4 C 18,3 C 89 % 0 lf 1016,7 hPa 0,0 l/m 0 min 0 min 0 W/m 8,4 km/h (2 Bft) 97,87 %
15.08.2017 23:00 20,2 C 19,4 C 18,3 C 89 % 0 lf 1016,6 hPa 0,0 l/m 0 min 0 min 0 W/m 8,4 km/h (2 Bft) 91,30 %
15.08.2017 23:02 20,2 C 19,4 C 18,3 C 89 % 0 lf 1016,5 hPa 0,0 l/m 0 min 0 min 0 W/m 4,2 km/h (1 Bft) 95,83 %
15.08.2017 23:04 20,2 C 19,4 C 18,3 C 89 % 0 lf 1016,5 hPa 0,0 l/m 0 min 0 min 0 W/m 4,2 km/h (1 Bft) 95,74 %
15.08.2017 23:06 20,2 C 19,4 C 18,3 C 89 % 0 lf 1016,6 hPa 0,0 l/m 0 min 0 min 0 W/m 10,5 km/h (2 Bft) 97,87 %
15.08.2017 23:08 20,1 C 19,4 C 18,3 C 89 % 0 lf 1016,6 hPa 0,0 l/m 0 min 0 min 0 W/m 4,2 km/h (1 Bft) 97,87 %
15.08.2017 23:10 20,1 C 18,9 C 18,3 C 89 % 0 lf 1016,6 hPa 0,0 l/m 0 min 0 min 0 W/m 10,5 km/h (2 Bft) 91,30 %
15.08.2017 23:12 20,1 C 18,9 C 18,3 C 89 % 0 lf 1016,6 hPa 0,0 l/m 0 min 0 min 0 W/m 8,4 km/h (2 Bft) 97,87 %
15.08.2017 23:14 20,1 C 18,9 C 17,8 C 89 % 0 lf 1016,6 hPa 0,0 l/m 0 min 0 min 0 W/m 8,4 km/h (2 Bft) 97,87 %
15.08.2017 23:16 20,0 C 18,9 C 17,8 C 89 % 0 lf 1016,6 hPa 0,0 l/m 0 min 0 min 0 W/m 8,4 km/h (2 Bft) 97,87 %
15.08.2017 23:18 20,0 C 18,9 C 17,8 C 89 % 0 lf 1016,6 hPa 0,0 l/m 0 min 0 min 0 W/m 8,4 km/h (2 Bft) 97,87 %
15.08.2017 23:20 20,0 C 18,9 C 17,8 C 89 % 0 lf 1016,7 hPa 0,0 l/m 0 min 0 min 0 W/m 8,4 km/h (2 Bft) 95,74 %
15.08.2017 23:22 19,9 C 18,9 C 17,8 C 89 % 0 lf 1016,8 hPa 0,0 l/m 0 min 0 min 0 W/m 4,2 km/h (1 Bft) 91,30 %
15.08.2017 23:24 19,9 C 18,9 C 17,8 C 90 % 0 lf 1016,9 hPa 0,0 l/m 0 min 0 min 0 W/m 4,2 km/h (1 Bft) 89,36 %
15.08.2017 23:26 19,9 C 18,9 C 17,8 C 90 % 0 lf 1016,8 hPa 0,0 l/m 0 min 0 min 0 W/m 4,2 km/h (1 Bft) 93,62 %
15.08.2017 23:28 19,9 C 18,9 C 17,8 C 89 % 0 lf 1016,9 hPa 0,0 l/m 0 min 0 min 0 W/m 4,2 km/h (1 Bft) 93,62 %
15.08.2017 23:30 19,9 C 18,9 C 17,8 C 89 % 0 lf 1017,0 hPa 0,0 l/m 0 min 0 min 0 W/m 4,2 km/h (1 Bft) 93,62 %
15.08.2017 23:32 19,8 C 18,9 C 17,8 C 90 % 0 lf 1017,1 hPa 0,0 l/m 0 min 0 min 0 W/m 6,3 km/h (2 Bft) 91,67 %
15.08.2017 23:34 19,8 C 18,9 C 17,8 C 90 % 0 lf 1017,1 hPa 0,0 l/m 0 min 0 min 0 W/m 6,3 km/h (2 Bft) 93,48 %
15.08.2017 23:36 19,8 C 18,9 C 17,8 C 90 % 0 lf 1017,1 hPa 0,0 l/m 0 min 0 min 0 W/m 6,3 km/h (2 Bft) 91,49 %
15.08.2017 23:38 19,8 C 18,9 C 17,8 C 90 % 0 lf 1017,2 hPa 0,0 l/m 0 min 0 min 0 W/m 6,3 km/h (2 Bft) 91,49 %
15.08.2017 23:40 19,7 C 18,9 C 17,8 C 90 % 0 lf 1017,3 hPa 0,0 l/m 0 min 0 min 0 W/m 2,1 km/h (1 Bft) 91,49 %
15.08.2017 23:42 19,7 C 18,9 C 17,8 C 90 % 0 lf 1017,3 hPa 0,0 l/m 0 min 0 min 0 W/m 6,3 km/h (2 Bft) 91,49 %
15.08.2017 23:44 19,7 C 18,9 C 17,8 C 90 % 0 lf 1017,3 hPa 0,0 l/m 0 min 0 min 0 W/m 6,3 km/h (2 Bft) 91,49 %
15.08.2017 23:46 19,7 C 18,9 C 17,8 C 90 % 0 lf 1017,4 hPa 0,0 l/m 0 min 0 min 0 W/m 4,2 km/h (1 Bft) 93,48 %
15.08.2017 23:48 19,7 C 18,9 C 17,8 C 90 % 0 lf 1017,4 hPa 0,0 l/m 0 min 0 min 0 W/m 6,3 km/h (2 Bft) 93,62 %
15.08.2017 23:50 19,6 C 18,9 C 17,8 C 90 % 0 lf 1017,4 hPa 0,0 l/m 0 min 0 min 0 W/m 6,3 km/h (2 Bft) 93,62 %
15.08.2017 23:52 19,6 C 18,9 C 17,8 C 90 % 0 lf 1017,4 hPa 0,0 l/m 0 min 0 min 0 W/m 8,4 km/h (2 Bft) 93,62 %
15.08.2017 23:54 19,6 C 18,9 C 17,8 C 91 % 0 lf 1017,4 hPa 0,0 l/m 0 min 0 min 0 W/m 6,3 km/h (2 Bft) 95,74 %
15.08.2017 23:56 19,6 C 18,9 C 17,8 C 91 % 0 lf 1017,4 hPa 0,0 l/m 0 min 0 min 0 W/m 8,4 km/h (2 Bft) 91,49 %
15.08.2017 23:58 19,6 C 18,9 C 17,8 C 91 % 0 lf 1017,4 hPa 0,0 l/m 0 min 0 min 0 W/m 12,6 km/h (3 Bft) 93,48 %
_ Min-Zeit 06:48 04:54 04:56 14:42 08:16 13:02 - - - - 00:04 07:22
Minimum _ 15,7 C 15,0 C 13,3 C 66 % 0 lf 1011,8 hPa - - - - 0,0 km/h (0 Bft) 88,89 %
_ Max-Zeit 14:06 13:56 14:16 08:26 11:10 23:46 11:20 06:34 12:10 13:58 19:14 00:14
Maximum _ 25,3 C 32,8 C 26,7 C 98 % 15 lf 1017,4 hPa 0,2 l/m 2 min 4 min 851 W/m 41,8 km/h
W-SW (6 Bft)
100,00 %
Durchschnitt _ 20,3 C 20,4 C 18,8 C 88 % 2 lf 1014,2 hPa #1,2 l/m #4:56 h #1:34 h 197 W/m 10,4 km/h (2 Bft) 96,47 %
© 2017 W. Hausmann